Wetterdaten: Freitag, 02.12.2022
Datum Zeit Temp. Aussen Temp. o. S. Temp +5cm Feuchte Auss Luftdruck Regen Sonnenschein Regendauer Solar Windben Empfang
02.12.2022 00:00 3,9 C 3,3 C 1,1 C 90 % 1026,1 hPa 0,0 l/m 0 min 0 min 0 W/m 6,4 km/h (2 Bft) 100,00 %
02.12.2022 00:02 3,9 C 3,3 C 1,1 C 90 % 1026,1 hPa 0,0 l/m 0 min 0 min 0 W/m 9,7 km/h (2 Bft) 95,74 %
02.12.2022 00:04 3,9 C 3,3 C 1,1 C 90 % 1026,1 hPa 0,0 l/m 0 min 0 min 0 W/m 12,9 km/h (3 Bft) 100,00 %
02.12.2022 00:08 3,9 C 3,3 C 1,1 C 90 % 1026,0 hPa 0,0 l/m 0 min 0 min 0 W/m 16,1 km/h (3 Bft) 100,00 %
02.12.2022 00:10 3,9 C 3,3 C 1,1 C 90 % 1026,0 hPa 0,0 l/m 0 min 0 min 0 W/m 6,4 km/h (2 Bft) 100,00 %
02.12.2022 00:12 3,9 C 3,3 C 1,1 C 90 % 1026,0 hPa 0,0 l/m 0 min 0 min 0 W/m 3,2 km/h (1 Bft) 97,87 %
02.12.2022 00:14 3,9 C 3,3 C 1,1 C 90 % 1025,9 hPa 0,0 l/m 0 min 0 min 0 W/m 3,2 km/h (1 Bft) 100,00 %
02.12.2022 00:16 3,9 C 3,3 C 1,1 C 90 % 1025,9 hPa 0,0 l/m 0 min 0 min 0 W/m 3,2 km/h (1 Bft) 97,87 %
02.12.2022 00:18 3,9 C 3,3 C 1,1 C 90 % 1025,9 hPa 0,0 l/m 0 min 0 min 0 W/m 3,2 km/h (1 Bft) 97,87 %
02.12.2022 00:20 3,9 C 3,3 C 1,1 C 90 % 1025,9 hPa 0,0 l/m 0 min 0 min 0 W/m 6,4 km/h (2 Bft) 100,00 %
02.12.2022 00:22 3,9 C 3,3 C 1,1 C 90 % 1025,9 hPa 0,0 l/m 0 min 0 min 0 W/m 6,4 km/h (2 Bft) 100,00 %
02.12.2022 00:24 3,9 C 3,3 C 1,1 C 90 % 1025,9 hPa 0,0 l/m 0 min 0 min 0 W/m 6,4 km/h (2 Bft) 97,87 %
02.12.2022 00:26 3,9 C 3,3 C 1,1 C 90 % 1025,9 hPa 0,0 l/m 0 min 0 min 0 W/m 6,4 km/h (2 Bft) 97,83 %
02.12.2022 00:28 3,9 C 3,3 C 1,1 C 90 % 1025,9 hPa 0,0 l/m 0 min 0 min 0 W/m 6,4 km/h (2 Bft) 93,62 %
02.12.2022 00:30 3,9 C 3,3 C 1,1 C 90 % 1025,9 hPa 0,0 l/m 0 min 0 min 0 W/m 12,9 km/h (3 Bft) 95,74 %
02.12.2022 00:32 3,9 C 3,3 C 1,1 C 90 % 1026,0 hPa 0,0 l/m 0 min 0 min 0 W/m 6,4 km/h (2 Bft) 95,74 %
02.12.2022 00:34 3,9 C 3,3 C 1,1 C 90 % 1026,0 hPa 0,0 l/m 0 min 0 min 0 W/m 9,7 km/h (2 Bft) 95,74 %
02.12.2022 00:36 3,9 C 3,3 C 1,1 C 90 % 1025,9 hPa 0,0 l/m 0 min 0 min 0 W/m 6,4 km/h (2 Bft) 95,74 %
02.12.2022 00:38 3,9 C 3,3 C 1,1 C 90 % 1025,9 hPa 0,0 l/m 0 min 0 min 0 W/m 19,3 km/h (3 Bft) 95,65 %
02.12.2022 00:40 3,9 C 3,3 C 1,1 C 90 % 1025,9 hPa 0,0 l/m 0 min 0 min 0 W/m 6,4 km/h (2 Bft) 95,74 %
02.12.2022 00:42 3,9 C 3,3 C 1,1 C 90 % 1025,9 hPa 0,0 l/m 0 min 0 min 0 W/m 6,4 km/h (2 Bft) 93,62 %
02.12.2022 00:44 3,9 C 3,3 C 1,1 C 90 % 1025,9 hPa 0,0 l/m 0 min 0 min 0 W/m 3,2 km/h (1 Bft) 95,74 %
02.12.2022 00:46 3,9 C 3,3 C 1,1 C 90 % 1025,8 hPa 0,0 l/m 0 min 0 min 0 W/m 3,2 km/h (1 Bft) 93,62 %
02.12.2022 00:48 3,9 C 3,3 C 1,1 C 90 % 1025,8 hPa 0,0 l/m 0 min 0 min 0 W/m 3,2 km/h (1 Bft) 95,74 %
02.12.2022 00:50 3,9 C 3,3 C 1,1 C 90 % 1025,8 hPa 0,0 l/m 0 min 0 min 0 W/m 3,2 km/h (1 Bft) 95,65 %
02.12.2022 00:52 3,9 C 3,3 C 1,1 C 90 % 1025,7 hPa 0,0 l/m 0 min 0 min 0 W/m 3,2 km/h (1 Bft) 95,74 %
02.12.2022 00:54 3,9 C 3,3 C 1,1 C 90 % 1025,7 hPa 0,0 l/m 0 min 0 min 0 W/m 3,2 km/h (1 Bft) 95,74 %
02.12.2022 00:56 3,9 C 3,3 C 1,1 C 90 % 1025,7 hPa 0,0 l/m 0 min 0 min 0 W/m 6,4 km/h (2 Bft) 95,74 %
02.12.2022 00:58 3,9 C 3,3 C 1,1 C 90 % 1025,8 hPa 0,0 l/m 0 min 0 min 0 W/m 3,2 km/h (1 Bft) 93,62 %
02.12.2022 01:00 3,9 C 3,3 C 1,1 C 90 % 1025,8 hPa 0,0 l/m 0 min 0 min 0 W/m 9,7 km/h (2 Bft) 97,87 %
02.12.2022 01:02 3,9 C 3,3 C 1,1 C 90 % 1025,8 hPa 0,0 l/m 0 min 0 min 0 W/m 12,9 km/h (3 Bft) 97,83 %
02.12.2022 01:04 3,9 C 3,3 C 1,1 C 90 % 1025,8 hPa 0,0 l/m 0 min 0 min 0 W/m 9,7 km/h (2 Bft) 96,08 %
02.12.2022 01:06 3,9 C 3,3 C 1,1 C 90 % 1025,7 hPa 0,0 l/m 0 min 0 min 0 W/m 12,9 km/h (3 Bft) 96,55 %
02.12.2022 01:08 3,9 C 3,3 C 1,1 C 90 % 1025,7 hPa 0,0 l/m 0 min 0 min 0 W/m 9,7 km/h (2 Bft) 94,44 %
02.12.2022 01:10 3,9 C 3,3 C 1,1 C 90 % 1025,8 hPa 0,0 l/m 0 min 0 min 0 W/m 6,4 km/h (2 Bft) 95,65 %
02.12.2022 01:12 3,8 C 3,3 C 1,1 C 90 % 1025,8 hPa 0,0 l/m 0 min 0 min 0 W/m 9,7 km/h (2 Bft) 95,74 %
02.12.2022 01:14 3,8 C 3,3 C 0,6 C 90 % 1025,7 hPa 0,0 l/m 0 min 0 min 0 W/m 6,4 km/h (2 Bft) 97,87 %
02.12.2022 01:16 3,8 C 3,3 C 0,6 C 90 % 1025,7 hPa 0,0 l/m 0 min 0 min 0 W/m 6,4 km/h (2 Bft) 97,87 %
02.12.2022 01:18 3,8 C 3,3 C 0,6 C 90 % 1025,6 hPa 0,0 l/m 0 min 0 min 0 W/m 9,7 km/h (2 Bft) 97,87 %
02.12.2022 01:20 3,8 C 3,3 C 0,6 C 90 % 1025,6 hPa 0,0 l/m 0 min 0 min 0 W/m 6,4 km/h (2 Bft) 100,00 %
02.12.2022 01:22 3,8 C 3,3 C 0,6 C 90 % 1025,6 hPa 0,0 l/m 0 min 0 min 0 W/m 6,4 km/h (2 Bft) 97,83 %
02.12.2022 01:24 3,7 C 3,3 C 0,6 C 90 % 1025,6 hPa 0,0 l/m 0 min 0 min 0 W/m 12,9 km/h (3 Bft) 97,87 %
02.12.2022 01:26 3,7 C 3,3 C 0,6 C 90 % 1025,6 hPa 0,0 l/m 0 min 0 min 0 W/m 16,1 km/h (3 Bft) 97,87 %
02.12.2022 01:28 3,7 C 3,3 C 0,6 C 90 % 1025,6 hPa 0,0 l/m 0 min 0 min 0 W/m 6,4 km/h (2 Bft) 100,00 %
02.12.2022 01:30 3,7 C 3,3 C 0,6 C 90 % 1025,6 hPa 0,0 l/m 0 min 0 min 0 W/m 6,4 km/h (2 Bft) 100,00 %
02.12.2022 01:32 3,7 C 3,3 C 0,6 C 90 % 1025,5 hPa 0,0 l/m 0 min 0 min 0 W/m 12,9 km/h (3 Bft) 97,87 %
02.12.2022 01:34 3,7 C 3,3 C 0,6 C 90 % 1025,5 hPa 0,0 l/m 0 min 0 min 0 W/m 6,4 km/h (2 Bft) 100,00 %
02.12.2022 01:36 3,7 C 3,3 C 0,6 C 90 % 1025,5 hPa 0,0 l/m 0 min 0 min 0 W/m 6,4 km/h (2 Bft) 97,87 %
02.12.2022 01:38 3,7 C 3,3 C 0,6 C 90 % 1025,5 hPa 0,0 l/m 0 min 0 min 0 W/m 6,4 km/h (2 Bft) 95,74 %
02.12.2022 01:40 3,7 C 3,3 C 0,6 C 90 % 1025,5 hPa 0,0 l/m 0 min 0 min 0 W/m 9,7 km/h (2 Bft) 95,74 %
02.12.2022 01:42 3,7 C 3,3 C 0,6 C 90 % 1025,5 hPa 0,0 l/m 0 min 0 min 0 W/m 6,4 km/h (2 Bft) 97,87 %
02.12.2022 01:44 3,7 C 3,3 C 0,6 C 90 % 1025,4 hPa 0,0 l/m 0 min 0 min 0 W/m 6,4 km/h (2 Bft) 97,87 %
02.12.2022 01:46 3,7 C 3,3 C 0,6 C 90 % 1025,4 hPa 0,0 l/m 0 min 0 min 0 W/m 16,1 km/h (3 Bft) 97,87 %
02.12.2022 01:48 3,7 C 3,3 C 0,6 C 90 % 1025,4 hPa 0,0 l/m 0 min 0 min 0 W/m 6,4 km/h (2 Bft) 97,83 %
02.12.2022 01:50 3,7 C 3,3 C 0,6 C 90 % 1025,4 hPa 0,0 l/m 0 min 0 min 0 W/m 6,4 km/h (2 Bft) 97,87 %
02.12.2022 01:52 3,7 C 3,3 C 0,6 C 90 % 1025,4 hPa 0,0 l/m 0 min 0 min 0 W/m 6,4 km/h (2 Bft) 97,87 %
02.12.2022 01:54 3,6 C 3,3 C 0,6 C 90 % 1025,3 hPa 0,0 l/m 0 min 0 min 0 W/m 6,4 km/h (2 Bft) 97,87 %
02.12.2022 01:56 3,6 C 3,3 C 0,6 C 90 % 1025,3 hPa 0,0 l/m 0 min 0 min 0 W/m 6,4 km/h (2 Bft) 97,87 %
02.12.2022 01:58 3,7 C 3,3 C 0,6 C 90 % 1025,4 hPa 0,0 l/m 0 min 0 min 0 W/m 6,4 km/h (2 Bft) 97,87 %
02.12.2022 02:00 3,6 C 3,3 C 0,6 C 91 % 1025,4 hPa 0,0 l/m 0 min 0 min 0 W/m 6,4 km/h (2 Bft) 97,83 %
02.12.2022 02:02 3,6 C 3,3 C 0,6 C 91 % 1025,4 hPa 0,0 l/m 0 min 0 min 0 W/m 6,4 km/h (2 Bft) 95,74 %
02.12.2022 02:04 3,6 C 3,3 C 0,6 C 91 % 1025,3 hPa 0,0 l/m 0 min 0 min 0 W/m 3,2 km/h (1 Bft) 97,87 %
02.12.2022 02:06 3,6 C 3,3 C 0,6 C 91 % 1025,3 hPa 0,0 l/m 0 min 0 min 0 W/m 16,1 km/h (3 Bft) 97,87 %
02.12.2022 02:08 3,6 C 3,3 C 0,6 C 91 % 1025,3 hPa 0,0 l/m 0 min 0 min 0 W/m 12,9 km/h (3 Bft) 95,74 %
02.12.2022 02:10 3,6 C 3,3 C 0,6 C 91 % 1025,3 hPa 0,0 l/m 0 min 0 min 0 W/m 9,7 km/h (2 Bft) 93,62 %
02.12.2022 02:12 3,6 C 2,8 C 0,6 C 91 % 1025,2 hPa 0,0 l/m 0 min 0 min 0 W/m 12,9 km/h (3 Bft) 100,00 %
02.12.2022 02:14 3,6 C 2,8 C 0,6 C 91 % 1025,3 hPa 0,0 l/m 0 min 0 min 0 W/m 9,7 km/h (2 Bft) 97,87 %
02.12.2022 02:16 3,6 C 2,8 C 0,6 C 91 % 1025,2 hPa 0,0 l/m 0 min 0 min 0 W/m 12,9 km/h (3 Bft) 95,74 %
02.12.2022 02:18 3,6 C 2,8 C 0,6 C 91 % 1025,2 hPa 0,0 l/m 0 min 0 min 0 W/m 12,9 km/h (3 Bft) 97,87 %
02.12.2022 02:20 3,6 C 2,8 C 0,6 C 91 % 1025,2 hPa 0,0 l/m 0 min 0 min 0 W/m 12,9 km/h (3 Bft) 97,87 %
02.12.2022 02:22 3,6 C 2,8 C 0,6 C 91 % 1025,2 hPa 0,0 l/m 0 min 0 min 0 W/m 12,9 km/h (3 Bft) 95,74 %
02.12.2022 02:24 3,6 C 2,8 C 0,6 C 91 % 1025,2 hPa 0,0 l/m 0 min 0 min 0 W/m 9,7 km/h (2 Bft) 97,83 %
02.12.2022 02:26 3,5 C 2,8 C 0,6 C 91 % 1025,2 hPa 0,0 l/m 0 min 0 min 0 W/m 9,7 km/h (2 Bft) 95,74 %
02.12.2022 02:28 3,5 C 2,8 C 0,6 C 91 % 1025,1 hPa 0,0 l/m 0 min 0 min 0 W/m 6,4 km/h (2 Bft) 95,74 %
02.12.2022 02:30 3,5 C 2,8 C 0,6 C 91 % 1025,1 hPa 0,0 l/m 0 min 0 min 0 W/m 12,9 km/h (3 Bft) 97,87 %
02.12.2022 02:32 3,5 C 2,8 C 0,6 C 91 % 1025,2 hPa 0,0 l/m 0 min 0 min 0 W/m 6,4 km/h (2 Bft) 97,87 %
02.12.2022 02:34 3,4 C 2,8 C 0,6 C 91 % 1025,2 hPa 0,0 l/m 0 min 0 min 0 W/m 9,7 km/h (2 Bft) 97,87 %
02.12.2022 02:36 3,4 C 2,8 C 0,6 C 91 % 1025,1 hPa 0,0 l/m 0 min 0 min 0 W/m 19,3 km/h (3 Bft) 97,83 %
02.12.2022 02:38 3,4 C 2,8 C 0,6 C 91 % 1025,2 hPa 0,0 l/m 0 min 0 min 0 W/m 9,7 km/h (2 Bft) 97,87 %
02.12.2022 02:40 3,4 C 2,8 C 0,6 C 91 % 1025,2 hPa 0,0 l/m 0 min 0 min 0 W/m 9,7 km/h (2 Bft) 97,87 %
02.12.2022 02:42 3,4 C 2,8 C 0,6 C 91 % 1025,2 hPa 0,0 l/m 0 min 0 min 0 W/m 12,9 km/h (3 Bft) 95,74 %
02.12.2022 02:44 3,3 C 2,8 C 0,6 C 91 % 1025,2 hPa 0,0 l/m 0 min 0 min 0 W/m 6,4 km/h (2 Bft) 95,74 %
02.12.2022 02:46 3,3 C 2,8 C 0,6 C 91 % 1025,2 hPa 0,0 l/m 0 min 0 min 0 W/m 6,4 km/h (2 Bft) 93,48 %
02.12.2022 02:48 3,3 C 2,8 C 0,6 C 91 % 1025,3 hPa 0,0 l/m 0 min 0 min 0 W/m 12,9 km/h (3 Bft) 100,00 %
02.12.2022 02:50 3,3 C 2,8 C 0,6 C 91 % 1025,3 hPa 0,0 l/m 0 min 0 min 0 W/m 9,7 km/h (2 Bft) 97,87 %
02.12.2022 02:52 3,3 C 2,8 C 0,6 C 91 % 1025,3 hPa 0,0 l/m 0 min 0 min 0 W/m 9,7 km/h (2 Bft) 97,87 %
02.12.2022 02:54 3,3 C 2,8 C 0,6 C 91 % 1025,3 hPa 0,0 l/m 0 min 0 min 0 W/m 9,7 km/h (2 Bft) 95,74 %
02.12.2022 02:56 3,3 C 2,8 C 0,6 C 91 % 1025,3 hPa 0,0 l/m 0 min 0 min 0 W/m 6,4 km/h (2 Bft) 100,00 %
02.12.2022 02:58 3,3 C 2,8 C 0,6 C 92 % 1025,3 hPa 0,0 l/m 0 min 0 min 0 W/m 6,4 km/h (2 Bft) 100,00 %
02.12.2022 03:00 3,3 C 2,8 C 0,6 C 92 % 1025,2 hPa 0,0 l/m 0 min 0 min 0 W/m 6,4 km/h (2 Bft) 100,00 %
02.12.2022 03:02 3,3 C 2,8 C 0,6 C 92 % 1025,2 hPa 0,0 l/m 0 min 0 min 0 W/m 6,4 km/h (2 Bft) 100,00 %
02.12.2022 03:04 3,2 C 2,8 C 0,6 C 92 % 1025,2 hPa 0,0 l/m 0 min 0 min 0 W/m 12,9 km/h (3 Bft) 100,00 %
02.12.2022 03:06 3,2 C 2,8 C 0,0 C 92 % 1025,2 hPa 0,0 l/m 0 min 0 min 0 W/m 16,1 km/h (3 Bft) 100,00 %
02.12.2022 03:08 3,2 C 2,8 C 0,6 C 92 % 1025,3 hPa 0,0 l/m 0 min 0 min 0 W/m 9,7 km/h (2 Bft) 100,00 %
02.12.2022 03:10 3,2 C 2,8 C 0,6 C 92 % 1025,3 hPa 0,0 l/m 0 min 0 min 0 W/m 12,9 km/h (3 Bft) 100,00 %
02.12.2022 03:12 3,2 C 2,8 C 0,6 C 92 % 1025,2 hPa 0,0 l/m 0 min 0 min 0 W/m 6,4 km/h (2 Bft) 100,00 %
02.12.2022 03:14 3,2 C 2,8 C 0,6 C 92 % 1025,2 hPa 0,0 l/m 0 min 0 min 0 W/m 3,2 km/h (1 Bft) 100,00 %
02.12.2022 03:16 3,2 C 2,8 C 0,6 C 92 % 1025,2 hPa 0,0 l/m 0 min 0 min 0 W/m 6,4 km/h (2 Bft) 95,74 %
02.12.2022 03:18 3,2 C 2,8 C 0,6 C 92 % 1025,1 hPa 0,0 l/m 0 min 0 min 0 W/m 9,7 km/h (2 Bft) 100,00 %
02.12.2022 03:20 3,2 C 2,8 C 0,0 C 92 % 1025,1 hPa 0,0 l/m 0 min 0 min 0 W/m 6,4 km/h (2 Bft) 100,00 %
02.12.2022 03:22 3,2 C 2,8 C 0,0 C 92 % 1025,1 hPa 0,0 l/m 0 min 0 min 0 W/m 6,4 km/h (2 Bft) 100,00 %
02.12.2022 03:24 3,2 C 2,8 C 0,0 C 92 % 1025,2 hPa 0,0 l/m 0 min 0 min 0 W/m 12,9 km/h (3 Bft) 100,00 %
02.12.2022 03:26 3,2 C 2,8 C 0,0 C 92 % 1025,1 hPa 0,0 l/m 0 min 0 min 0 W/m 12,9 km/h (3 Bft) 100,00 %
02.12.2022 03:28 3,1 C 2,8 C 0,0 C 92 % 1025,1 hPa 0,0 l/m 0 min 0 min 0 W/m 9,7 km/h (2 Bft) 100,00 %
02.12.2022 03:30 3,1 C 2,8 C 0,0 C 92 % 1025,1 hPa 0,0 l/m 0 min 0 min 0 W/m 9,7 km/h (2 Bft) 97,87 %
02.12.2022 03:32 3,1 C 2,8 C 0,0 C 92 % 1025,1 hPa 0,0 l/m 0 min 0 min 0 W/m 16,1 km/h (3 Bft) 100,00 %
02.12.2022 03:34 3,1 C 2,8 C 0,0 C 92 % 1025,0 hPa 0,0 l/m 0 min 0 min 0 W/m 12,9 km/h (3 Bft) 100,00 %
02.12.2022 03:36 3,1 C 2,8 C 0,0 C 92 % 1025,0 hPa 0,0 l/m 0 min 0 min 0 W/m 12,9 km/h (3 Bft) 100,00 %
02.12.2022 03:38 3,1 C 2,8 C 0,0 C 92 % 1025,0 hPa 0,0 l/m 0 min 0 min 0 W/m 9,7 km/h (2 Bft) 95,74 %
02.12.2022 03:40 3,1 C 2,8 C 0,0 C 92 % 1024,9 hPa 0,0 l/m 0 min 0 min 0 W/m 12,9 km/h (3 Bft) 97,87 %
02.12.2022 03:42 3,1 C 2,8 C 0,0 C 92 % 1024,9 hPa 0,0 l/m 0 min 0 min 0 W/m 9,7 km/h (2 Bft) 97,87 %
02.12.2022 03:44 3,1 C 2,8 C 0,0 C 92 % 1024,9 hPa 0,0 l/m 0 min 0 min 0 W/m 3,2 km/h (1 Bft) 97,87 %
02.12.2022 03:46 3,1 C 2,8 C 0,0 C 92 % 1024,9 hPa 0,0 l/m 0 min 0 min 0 W/m 6,4 km/h (2 Bft) 97,83 %
02.12.2022 03:48 3,1 C 2,8 C 0,0 C 92 % 1024,9 hPa 0,0 l/m 0 min 0 min 0 W/m 3,2 km/h (1 Bft) 97,87 %
02.12.2022 03:50 3,1 C 2,8 C 0,0 C 92 % 1024,9 hPa 0,0 l/m 0 min 0 min 0 W/m 3,2 km/h (1 Bft) 97,87 %
02.12.2022 03:52 3,1 C 2,8 C 0,0 C 92 % 1024,8 hPa 0,0 l/m 0 min 0 min 0 W/m 6,4 km/h (2 Bft) 46,34 %
02.12.2022 03:54 3,1 C 2,8 C 0,0 C 92 % 1024,9 hPa 0,0 l/m 0 min 0 min 0 W/m 6,4 km/h (2 Bft) 97,87 %
02.12.2022 03:57 3,1 C 2,8 C 0,0 C 92 % 1024,9 hPa 0,0 l/m 0 min 0 min 0 W/m 6,4 km/h (2 Bft) 97,14 %
02.12.2022 03:58 3,1 C 2,8 C 0,0 C 92 % 1024,9 hPa 0,0 l/m 0 min 0 min 0 W/m 6,4 km/h (2 Bft) 95,65 %
02.12.2022 04:00 3,1 C 2,8 C 0,0 C 92 % 1024,9 hPa 0,0 l/m 0 min 0 min 0 W/m 3,2 km/h (1 Bft) 97,87 %
02.12.2022 04:05 3,1 C 2,8 C 0,0 C 92 % 1024,8 hPa 0,0 l/m 0 min 0 min 0 W/m 6,4 km/h (2 Bft) 95,65 %
02.12.2022 04:06 3,1 C 2,8 C 0,0 C 92 % 1024,8 hPa 0,0 l/m 0 min 0 min 0 W/m 6,4 km/h (2 Bft) 91,67 %
02.12.2022 04:08 3,1 C 2,8 C 0,0 C 92 % 1024,8 hPa 0,0 l/m 0 min 0 min 0 W/m 6,4 km/h (2 Bft) 95,74 %
02.12.2022 04:10 3,1 C 2,8 C 0,0 C 92 % 1024,8 hPa 0,0 l/m 0 min 0 min 0 W/m 6,4 km/h (2 Bft) 94,74 %
02.12.2022 04:12 3,1 C 2,8 C 0,0 C 92 % 1024,8 hPa 0,0 l/m 0 min 0 min 0 W/m 6,4 km/h (2 Bft) 87,23 %
02.12.2022 04:14 3,1 C 2,8 C 0,0 C 92 % 1024,8 hPa 0,0 l/m 0 min 0 min 0 W/m 12,9 km/h (3 Bft) 95,74 %
02.12.2022 04:16 3,0 C 2,8 C 0,0 C 92 % 1024,8 hPa 0,0 l/m 0 min 0 min 0 W/m 6,4 km/h (2 Bft) 100,00 %
02.12.2022 04:18 3,0 C 2,8 C 0,0 C 92 % 1024,8 hPa 0,0 l/m 0 min 0 min 0 W/m 9,7 km/h (2 Bft) 95,92 %
02.12.2022 04:20 3,0 C 2,8 C 0,0 C 92 % 1024,7 hPa 0,0 l/m 0 min 0 min 0 W/m 6,4 km/h (2 Bft) 95,65 %
02.12.2022 04:22 3,0 C 2,8 C 0,0 C 92 % 1024,7 hPa 0,0 l/m 0 min 0 min 0 W/m 3,2 km/h (1 Bft) 91,49 %
02.12.2022 04:24 3,0 C 2,8 C 0,0 C 92 % 1024,7 hPa 0,0 l/m 0 min 0 min 0 W/m 6,4 km/h (2 Bft) 93,62 %
02.12.2022 04:26 3,0 C 2,8 C 0,0 C 92 % 1024,6 hPa 0,0 l/m 0 min 0 min 0 W/m 12,9 km/h (3 Bft) 91,49 %
02.12.2022 04:28 3,0 C 2,8 C 0,0 C 92 % 1024,6 hPa 0,0 l/m 0 min 0 min 0 W/m 3,2 km/h (1 Bft) 91,49 %
02.12.2022 04:30 3,0 C 2,8 C 0,0 C 92 % 1024,6 hPa 0,0 l/m 0 min 0 min 0 W/m 6,4 km/h (2 Bft) 91,49 %
02.12.2022 04:32 3,0 C 2,8 C 0,0 C 92 % 1024,5 hPa 0,0 l/m 0 min 0 min 0 W/m 3,2 km/h (1 Bft) 93,48 %
02.12.2022 04:34 3,0 C 2,8 C 0,0 C 92 % 1024,5 hPa 0,0 l/m 0 min 0 min 0 W/m 12,9 km/h (3 Bft) 95,74 %
02.12.2022 04:36 3,0 C 2,8 C 0,0 C 92 % 1024,5 hPa 0,0 l/m 0 min 0 min 0 W/m 9,7 km/h (2 Bft) 95,74 %
02.12.2022 04:38 3,0 C 2,8 C 0,0 C 92 % 1024,5 hPa 0,0 l/m 0 min 0 min 0 W/m 6,4 km/h (2 Bft) 97,87 %
02.12.2022 04:40 3,0 C 2,8 C 0,0 C 92 % 1024,5 hPa 0,0 l/m 0 min 0 min 0 W/m 6,4 km/h (2 Bft) 97,87 %
02.12.2022 04:42 3,0 C 2,8 C 0,0 C 92 % 1024,4 hPa 0,0 l/m 0 min 0 min 0 W/m 3,2 km/h (1 Bft) 97,87 %
02.12.2022 04:44 3,0 C 2,8 C 0,0 C 92 % 1024,4 hPa 0,0 l/m 0 min 0 min 0 W/m 6,4 km/h (2 Bft) 100,00 %
02.12.2022 04:46 3,1 C 2,8 C 0,0 C 92 % 1024,4 hPa 0,0 l/m 0 min 0 min 0 W/m 6,4 km/h (2 Bft) 100,00 %
02.12.2022 04:48 3,1 C 2,8 C 0,0 C 92 % 1024,4 hPa 0,0 l/m 0 min 0 min 0 W/m 6,4 km/h (2 Bft) 97,87 %
02.12.2022 04:50 3,1 C 2,8 C 0,0 C 92 % 1024,4 hPa 0,0 l/m 0 min 0 min 0 W/m 6,4 km/h (2 Bft) 97,87 %
02.12.2022 04:52 3,1 C 2,8 C 0,0 C 92 % 1024,4 hPa 0,0 l/m 0 min 0 min 0 W/m 6,4 km/h (2 Bft) 100,00 %
02.12.2022 04:54 3,1 C 2,8 C 0,0 C 92 % 1024,3 hPa 0,0 l/m 0 min 0 min 0 W/m 9,7 km/h (2 Bft) 100,00 %
02.12.2022 04:56 3,1 C 2,8 C 0,0 C 92 % 1024,3 hPa 0,0 l/m 0 min 0 min 0 W/m 6,4 km/h (2 Bft) 100,00 %
02.12.2022 04:58 3,1 C 2,8 C 0,0 C 92 % 1024,3 hPa 0,0 l/m 0 min 0 min 0 W/m 9,7 km/h (2 Bft) 100,00 %
02.12.2022 05:00 3,1 C 2,8 C 0,0 C 92 % 1024,3 hPa 0,0 l/m 0 min 0 min 0 W/m 3,2 km/h (1 Bft) 100,00 %
02.12.2022 05:02 3,1 C 2,8 C 0,0 C 92 % 1024,4 hPa 0,0 l/m 0 min 0 min 0 W/m 9,7 km/h (2 Bft) 100,00 %
02.12.2022 05:04 3,1 C 2,8 C 0,0 C 92 % 1024,3 hPa 0,0 l/m 0 min 0 min 0 W/m 6,4 km/h (2 Bft) 95,74 %
02.12.2022 05:06 3,1 C 2,8 C 0,0 C 92 % 1024,3 hPa 0,0 l/m 0 min 0 min 0 W/m 3,2 km/h (1 Bft) 97,83 %
02.12.2022 05:08 3,1 C 2,8 C 0,0 C 92 % 1024,3 hPa 0,0 l/m 0 min 0 min 0 W/m 9,7 km/h (2 Bft) 100,00 %
02.12.2022 05:10 3,1 C 2,8 C 0,0 C 92 % 1024,3 hPa 0,0 l/m 0 min 0 min 0 W/m 9,7 km/h (2 Bft) 97,87 %
02.12.2022 05:12 3,1 C 2,8 C 0,0 C 92 % 1024,3 hPa 0,0 l/m 0 min 0 min 0 W/m 6,4 km/h (2 Bft) 97,87 %
02.12.2022 05:14 3,1 C 2,8 C 0,0 C 92 % 1024,2 hPa 0,0 l/m 0 min 0 min 0 W/m 6,4 km/h (2 Bft) 100,00 %
02.12.2022 05:16 3,1 C 2,8 C 0,0 C 92 % 1024,2 hPa 0,0 l/m 0 min 0 min 0 W/m 6,4 km/h (2 Bft) 95,74 %
02.12.2022 05:18 3,1 C 2,8 C 0,0 C 92 % 1024,2 hPa 0,0 l/m 0 min 0 min 0 W/m 16,1 km/h (3 Bft) 100,00 %
02.12.2022 05:20 3,1 C 2,8 C 0,0 C 92 % 1024,2 hPa 0,0 l/m 0 min 0 min 0 W/m 19,3 km/h (3 Bft) 100,00 %
02.12.2022 05:22 3,1 C 2,8 C 0,0 C 91 % 1024,2 hPa 0,0 l/m 0 min 0 min 0 W/m 12,9 km/h (3 Bft) 97,87 %
02.12.2022 05:24 3,1 C 2,8 C 0,0 C 91 % 1024,2 hPa 0,0 l/m 0 min 0 min 0 W/m 9,7 km/h (2 Bft) 100,00 %
02.12.2022 05:26 3,1 C 2,8 C 0,0 C 91 % 1024,2 hPa 0,0 l/m 0 min 0 min 0 W/m 6,4 km/h (2 Bft) 97,87 %
02.12.2022 05:28 3,1 C 2,8 C 0,0 C 91 % 1024,2 hPa 0,0 l/m 0 min 0 min 0 W/m 6,4 km/h (2 Bft) 97,87 %
02.12.2022 05:30 3,1 C 2,8 C 0,0 C 91 % 1024,2 hPa 0,0 l/m 0 min 0 min 0 W/m 6,4 km/h (2 Bft) 100,00 %
02.12.2022 05:32 3,1 C 2,8 C 0,0 C 91 % 1024,1 hPa 0,0 l/m 0 min 0 min 0 W/m 6,4 km/h (2 Bft) 100,00 %
02.12.2022 05:34 3,1 C 2,8 C 0,0 C 91 % 1024,1 hPa 0,0 l/m 0 min 0 min 0 W/m 6,4 km/h (2 Bft) 97,87 %
02.12.2022 05:36 3,1 C 2,8 C 0,0 C 91 % 1024,1 hPa 0,0 l/m 0 min 0 min 0 W/m 6,4 km/h (2 Bft) 100,00 %
02.12.2022 05:38 3,1 C 2,8 C 0,0 C 91 % 1024,2 hPa 0,0 l/m 0 min 0 min 0 W/m 6,4 km/h (2 Bft) 100,00 %
02.12.2022 05:40 3,1 C 2,8 C 0,0 C 92 % 1024,1 hPa 0,0 l/m 0 min 0 min 0 W/m 9,7 km/h (2 Bft) 95,74 %
02.12.2022 05:42 3,1 C 2,8 C 0,0 C 92 % 1024,2 hPa 0,0 l/m 0 min 0 min 0 W/m 6,4 km/h (2 Bft) 100,00 %
02.12.2022 05:44 3,1 C 2,8 C 0,0 C 92 % 1024,1 hPa 0,0 l/m 0 min 0 min 0 W/m 9,7 km/h (2 Bft) 100,00 %
02.12.2022 05:46 3,1 C 2,8 C 0,0 C 92 % 1024,1 hPa 0,0 l/m 0 min 0 min 0 W/m 9,7 km/h (2 Bft) 93,62 %
02.12.2022 05:48 3,1 C 2,8 C 0,0 C 91 % 1024,1 hPa 0,0 l/m 0 min 0 min 0 W/m 6,4 km/h (2 Bft) 100,00 %
02.12.2022 05:50 3,1 C 2,8 C 0,0 C 91 % 1024,0 hPa 0,0 l/m 0 min 0 min 0 W/m 6,4 km/h (2 Bft) 100,00 %
02.12.2022 05:52 3,1 C 2,8 C 0,0 C 92 % 1024,0 hPa 0,0 l/m 0 min 0 min 0 W/m 6,4 km/h (2 Bft) 97,87 %
02.12.2022 05:54 3,1 C 2,8 C 0,0 C 92 % 1024,0 hPa 0,0 l/m 0 min 0 min 0 W/m 6,4 km/h (2 Bft) 100,00 %
02.12.2022 05:56 3,1 C 2,8 C 0,0 C 92 % 1024,0 hPa 0,0 l/m 0 min 0 min 0 W/m 9,7 km/h (2 Bft) 97,87 %
02.12.2022 05:58 3,1 C 2,8 C 0,0 C 92 % 1024,0 hPa 0,0 l/m 0 min 0 min 0 W/m 3,2 km/h (1 Bft) 95,74 %
02.12.2022 06:00 3,1 C 2,8 C 0,0 C 92 % 1023,9 hPa 0,0 l/m 0 min 0 min 0 W/m 12,9 km/h (3 Bft) 97,87 %
02.12.2022 06:02 3,1 C 2,8 C 0,0 C 92 % 1024,0 hPa 0,0 l/m 0 min 0 min 0 W/m 9,7 km/h (2 Bft) 97,87 %
02.12.2022 06:04 3,1 C 2,8 C 0,0 C 92 % 1023,9 hPa 0,0 l/m 0 min 0 min 0 W/m 9,7 km/h (2 Bft) 95,74 %
02.12.2022 06:08 3,1 C 2,8 C 0,0 C 92 % 1023,9 hPa 0,0 l/m 0 min 0 min 0 W/m 9,7 km/h (2 Bft) 96,84 %
02.12.2022 06:10 3,1 C 2,8 C 0,0 C 92 % 1023,9 hPa 0,0 l/m 0 min 0 min 0 W/m 12,9 km/h (3 Bft) 95,65 %
02.12.2022 06:12 3,1 C 2,8 C 0,0 C 92 % 1023,9 hPa 0,0 l/m 0 min 0 min 0 W/m 9,7 km/h (2 Bft) 97,87 %
02.12.2022 06:14 3,1 C 2,8 C 0,0 C 92 % 1023,9 hPa 0,0 l/m 0 min 0 min 0 W/m 9,7 km/h (2 Bft) 97,92 %
02.12.2022 06:16 3,1 C 2,8 C 0,0 C 92 % 1023,9 hPa 0,0 l/m 0 min 0 min 0 W/m 6,4 km/h (2 Bft) 100,00 %
02.12.2022 06:18 3,1 C 2,8 C 0,0 C 92 % 1023,8 hPa 0,0 l/m 0 min 0 min 0 W/m 6,4 km/h (2 Bft) 97,83 %
02.12.2022 06:20 3,1 C 2,8 C 0,0 C 92 % 1023,8 hPa 0,0 l/m 0 min 0 min 0 W/m 12,9 km/h (3 Bft) 95,74 %
02.12.2022 06:22 3,1 C 2,8 C 0,0 C 92 % 1023,9 hPa 0,0 l/m 0 min 0 min 0 W/m 16,1 km/h (3 Bft) 97,87 %
02.12.2022 06:24 3,1 C 2,8 C 0,0 C 92 % 1023,9 hPa 0,0 l/m 0 min 0 min 0 W/m 6,4 km/h (2 Bft) 97,87 %
02.12.2022 06:26 3,1 C 2,8 C 0,0 C 92 % 1023,8 hPa 0,0 l/m 0 min 0 min 0 W/m 12,9 km/h (3 Bft) 97,87 %
02.12.2022 06:28 3,1 C 2,8 C 0,0 C 92 % 1023,8 hPa 0,0 l/m 0 min 0 min 0 W/m 6,4 km/h (2 Bft) 97,87 %
02.12.2022 06:30 3,1 C 2,8 C 0,0 C 92 % 1023,7 hPa 0,0 l/m 0 min 0 min 0 W/m 3,2 km/h (1 Bft) 97,83 %
02.12.2022 06:32 3,1 C 2,8 C 0,0 C 92 % 1023,7 hPa 0,0 l/m 0 min 0 min 0 W/m 6,4 km/h (2 Bft) 97,87 %
02.12.2022 06:34 3,1 C 2,8 C 0,0 C 92 % 1023,8 hPa 0,0 l/m 0 min 0 min 0 W/m 3,2 km/h (1 Bft) 97,87 %
02.12.2022 06:36 3,1 C 2,8 C 0,0 C 92 % 1023,7 hPa 0,0 l/m 0 min 0 min 0 W/m 12,9 km/h (3 Bft) 95,74 %
02.12.2022 06:38 3,1 C 2,8 C 0,0 C 92 % 1023,7 hPa 0,0 l/m 0 min 0 min 0 W/m 6,4 km/h (2 Bft) 97,87 %
02.12.2022 06:40 3,1 C 2,8 C 0,0 C 92 % 1023,7 hPa 0,0 l/m 0 min 0 min 0 W/m 9,7 km/h (2 Bft) 97,87 %
02.12.2022 06:42 3,1 C 2,8 C 0,0 C 92 % 1023,6 hPa 0,0 l/m 0 min 0 min 0 W/m 6,4 km/h (2 Bft) 95,65 %
02.12.2022 06:44 3,1 C 2,8 C 0,0 C 92 % 1023,7 hPa 0,0 l/m 0 min 0 min 0 W/m 9,7 km/h (2 Bft) 97,87 %
02.12.2022 06:46 3,1 C 2,8 C 0,0 C 92 % 1023,7 hPa 0,0 l/m 0 min 0 min 0 W/m 3,2 km/h (1 Bft) 95,74 %
02.12.2022 06:48 3,1 C 2,8 C 0,0 C 92 % 1023,7 hPa 0,0 l/m 0 min 0 min 0 W/m 6,4 km/h (2 Bft) 95,74 %
02.12.2022 06:50 3,1 C 2,8 C 0,0 C 92 % 1023,6 hPa 0,0 l/m 0 min 0 min 0 W/m 9,7 km/h (2 Bft) 95,74 %
02.12.2022 06:52 3,1 C 2,8 C 0,0 C 92 % 1023,6 hPa 0,0 l/m 0 min 0 min 0 W/m 9,7 km/h (2 Bft) 95,74 %
02.12.2022 06:54 3,1 C 2,8 C 0,0 C 92 % 1023,6 hPa 0,0 l/m 0 min 0 min 0 W/m 9,7 km/h (2 Bft) 95,65 %
02.12.2022 06:56 3,1 C 2,8 C 0,0 C 92 % 1023,7 hPa 0,0 l/m 0 min 0 min 0 W/m 9,7 km/h (2 Bft) 95,74 %
02.12.2022 06:58 3,1 C 2,8 C 0,0 C 92 % 1023,6 hPa 0,0 l/m 0 min 0 min 0 W/m 6,4 km/h (2 Bft) 95,74 %
02.12.2022 07:00 3,1 C 2,8 C 0,0 C 92 % 1023,7 hPa 0,0 l/m 0 min 0 min 0 W/m 9,7 km/h (2 Bft) 95,74 %
02.12.2022 07:02 3,1 C 2,8 C 0,0 C 92 % 1023,7 hPa 0,0 l/m 0 min 0 min 0 W/m 22,5 km/h (4 Bft) 97,87 %
02.12.2022 07:04 3,1 C 2,8 C 0,0 C 92 % 1023,6 hPa 0,0 l/m 0 min 0 min 0 W/m 6,4 km/h (2 Bft) 93,62 %
02.12.2022 07:06 3,1 C 2,8 C 0,0 C 92 % 1023,6 hPa 0,0 l/m 0 min 0 min 0 W/m 9,7 km/h (2 Bft) 95,65 %
02.12.2022 07:08 3,1 C 2,8 C 0,0 C 92 % 1023,6 hPa 0,0 l/m 0 min 0 min 0 W/m 6,4 km/h (2 Bft) 97,87 %
02.12.2022 07:10 3,1 C 2,8 C 0,0 C 92 % 1023,6 hPa 0,0 l/m 0 min 0 min 0 W/m 22,5 km/h (4 Bft) 95,74 %
02.12.2022 07:12 3,1 C 2,8 C 0,0 C 92 % 1023,6 hPa 0,0 l/m 0 min 0 min 0 W/m 9,7 km/h (2 Bft) 97,87 %
02.12.2022 07:14 3,1 C 2,8 C 0,0 C 92 % 1023,6 hPa 0,0 l/m 0 min 0 min 0 W/m 6,4 km/h (2 Bft) 97,87 %
02.12.2022 07:16 3,1 C 2,8 C 0,0 C 92 % 1023,7 hPa 0,0 l/m 0 min 0 min 0 W/m 6,4 km/h (2 Bft) 95,74 %
02.12.2022 07:18 3,1 C 2,8 C 0,0 C 92 % 1023,7 hPa 0,0 l/m 0 min 0 min 0 W/m 9,7 km/h (2 Bft) 97,83 %
02.12.2022 07:20 3,1 C 2,8 C 0,0 C 92 % 1023,7 hPa 0,0 l/m 0 min 0 min 0 W/m 12,9 km/h (3 Bft) 97,87 %
02.12.2022 07:22 3,1 C 2,8 C 0,0 C 92 % 1023,7 hPa 0,0 l/m 0 min 0 min 0 W/m 16,1 km/h (3 Bft) 95,74 %
02.12.2022 07:24 3,1 C 2,8 C 0,0 C 92 % 1023,7 hPa 0,0 l/m 0 min 0 min 0 W/m 9,7 km/h (2 Bft) 97,87 %
02.12.2022 07:26 3,1 C 2,8 C 0,0 C 92 % 1023,7 hPa 0,0 l/m 0 min 0 min 0 W/m 12,9 km/h (3 Bft) 93,62 %
02.12.2022 07:28 3,1 C 2,8 C 0,0 C 92 % 1023,6 hPa 0,0 l/m 0 min 0 min 0 W/m 9,7 km/h (2 Bft) 95,74 %
02.12.2022 07:30 3,1 C 2,8 C 0,0 C 92 % 1023,6 hPa 0,0 l/m 0 min 0 min 0 W/m 16,1 km/h (3 Bft) 95,65 %
02.12.2022 07:32 3,1 C 2,8 C 0,0 C 92 % 1023,7 hPa 0,0 l/m 0 min 0 min 0 W/m 12,9 km/h (3 Bft) 95,74 %
02.12.2022 07:34 3,1 C 2,8 C 0,0 C 92 % 1023,7 hPa 0,0 l/m 0 min 0 min 0 W/m 12,9 km/h (3 Bft) 100,00 %
02.12.2022 07:36 3,1 C 2,8 C 0,0 C 93 % 1023,7 hPa 0,0 l/m 0 min 0 min 0 W/m 12,9 km/h (3 Bft) 82,98 %
02.12.2022 07:38 3,1 C 2,8 C 0,0 C 93 % 1023,7 hPa 0,0 l/m 0 min 0 min 0 W/m 9,7 km/h (2 Bft) 68,09 %
02.12.2022 07:40 3,1 C 2,8 C 0,0 C 93 % 1023,6 hPa 0,0 l/m 0 min 0 min 0 W/m 16,1 km/h (3 Bft) 100,00 %
02.12.2022 07:42 3,1 C 2,8 C 0,0 C 93 % 1023,6 hPa 0,0 l/m 0 min 0 min 0 W/m 16,1 km/h (3 Bft) 100,00 %
02.12.2022 07:44 3,1 C 2,8 C 0,0 C 93 % 1023,6 hPa 0,0 l/m 0 min 0 min 0 W/m 19,3 km/h (3 Bft) 100,00 %
02.12.2022 07:46 3,1 C 2,8 C 0,0 C 93 % 1023,7 hPa 0,0 l/m 0 min 0 min 0 W/m 12,9 km/h (3 Bft) 95,74 %
02.12.2022 07:48 3,1 C 2,8 C 0,0 C 93 % 1023,6 hPa 0,0 l/m 0 min 0 min 0 W/m 12,9 km/h (3 Bft) 95,74 %
02.12.2022 07:50 3,1 C 2,8 C 0,0 C 93 % 1023,6 hPa 0,0 l/m 0 min 0 min 0 W/m 12,9 km/h (3 Bft) 97,87 %
02.12.2022 07:52 3,1 C 2,8 C 0,0 C 93 % 1023,7 hPa 0,0 l/m 0 min 0 min 0 W/m 6,4 km/h (2 Bft) 97,87 %
02.12.2022 07:54 3,1 C 2,8 C 0,0 C 93 % 1023,7 hPa 0,0 l/m 0 min 0 min 0 W/m 16,1 km/h (3 Bft) 97,83 %
02.12.2022 07:56 3,1 C 2,8 C 0,0 C 93 % 1023,6 hPa 0,0 l/m 0 min 0 min 0 W/m 12,9 km/h (3 Bft) 95,74 %
02.12.2022 07:58 3,1 C 2,8 C 0,0 C 93 % 1023,6 hPa 0,0 l/m 0 min 0 min 0 W/m 6,4 km/h (2 Bft) 97,87 %
02.12.2022 08:00 3,1 C 2,8 C 0,0 C 93 % 1023,6 hPa 0,0 l/m 0 min 0 min 0 W/m 9,7 km/h (2 Bft) 97,87 %
02.12.2022 08:02 3,1 C 2,8 C 0,0 C 93 % 1023,6 hPa 0,0 l/m 0 min 0 min 0 W/m 6,4 km/h (2 Bft) 97,92 %
02.12.2022 08:04 3,1 C 2,8 C 0,0 C 93 % 1023,6 hPa 0,0 l/m 0 min 0 min 0 W/m 12,9 km/h (3 Bft) 95,65 %
02.12.2022 08:06 3,1 C 2,8 C 0,0 C 93 % 1023,6 hPa 0,0 l/m 0 min 0 min 0 W/m 12,9 km/h (3 Bft) 97,87 %
02.12.2022 08:08 3,2 C 2,8 C 0,0 C 93 % 1023,6 hPa 0,0 l/m 0 min 0 min 0 W/m 9,7 km/h (2 Bft) 95,74 %
02.12.2022 08:10 3,1 C 2,8 C 0,0 C 93 % 1023,6 hPa 0,0 l/m 0 min 0 min 0 W/m 9,7 km/h (2 Bft) 97,87 %
02.12.2022 08:12 3,1 C 2,8 C 0,0 C 93 % 1023,6 hPa 0,0 l/m 0 min 0 min 0 W/m 9,7 km/h (2 Bft) 97,87 %
02.12.2022 08:14 3,1 C 2,8 C 0,0 C 93 % 1023,6 hPa 0,0 l/m 0 min 0 min 0 W/m 6,4 km/h (2 Bft) 97,87 %
02.12.2022 08:16 3,2 C 2,8 C 0,0 C 93 % 1023,7 hPa 0,0 l/m 0 min 0 min 0 W/m 6,4 km/h (2 Bft) 93,48 %
02.12.2022 08:18 3,1 C 2,8 C 0,0 C 93 % 1023,7 hPa 0,0 l/m 0 min 0 min 0 W/m 12,9 km/h (3 Bft) 100,00 %
02.12.2022 08:20 3,1 C 2,8 C 0,0 C 93 % 1023,6 hPa 0,0 l/m 0 min 0 min 0 W/m 9,7 km/h (2 Bft) 100,00 %
02.12.2022 08:22 3,1 C 2,8 C 0,0 C 93 % 1023,7 hPa 0,0 l/m 0 min 0 min 0 W/m 12,9 km/h (3 Bft) 100,00 %
02.12.2022 08:24 3,1 C 2,8 C 0,0 C 93 % 1023,6 hPa 0,0 l/m 0 min 0 min 0 W/m 16,1 km/h (3 Bft) 100,00 %
02.12.2022 08:26 3,1 C 2,8 C 0,0 C 93 % 1023,7 hPa 0,0 l/m 0 min 0 min 0 W/m 12,9 km/h (3 Bft) 100,00 %
02.12.2022 08:28 3,1 C 2,8 C 0,0 C 93 % 1023,7 hPa 0,0 l/m 0 min 0 min 0 W/m 6,4 km/h (2 Bft) 100,00 %
02.12.2022 08:30 3,1 C 2,8 C 0,0 C 93 % 1023,7 hPa 0,0 l/m 0 min 0 min 0 W/m 12,9 km/h (3 Bft) 100,00 %
02.12.2022 08:32 3,1 C 2,8 C 0,0 C 93 % 1023,7 hPa 0,0 l/m 0 min 0 min 0 W/m 16,1 km/h (3 Bft) 100,00 %
02.12.2022 08:34 3,1 C 2,8 C 0,0 C 93 % 1023,7 hPa 0,0 l/m 0 min 0 min 0 W/m 12,9 km/h (3 Bft) 100,00 %
02.12.2022 08:36 3,1 C 2,8 C 0,0 C 93 % 1023,7 hPa 0,0 l/m 0 min 0 min 0 W/m 9,7 km/h (2 Bft) 97,87 %
02.12.2022 08:38 3,1 C 2,8 C 0,0 C 93 % 1023,7 hPa 0,0 l/m 0 min 0 min 0 W/m 12,9 km/h (3 Bft) 97,87 %
02.12.2022 08:40 3,1 C 2,8 C 0,0 C 93 % 1023,7 hPa 0,0 l/m 0 min 0 min 0 W/m 12,9 km/h (3 Bft) 95,65 %
02.12.2022 08:42 3,1 C 2,8 C 0,0 C 93 % 1023,7 hPa 0,0 l/m 0 min 0 min 0 W/m 12,9 km/h (3 Bft) 100,00 %
02.12.2022 08:44 3,1 C 2,8 C 0,0 C 93 % 1023,7 hPa 0,0 l/m 0 min 0 min 0 W/m 9,7 km/h (2 Bft) 100,00 %
02.12.2022 08:46 3,1 C 2,8 C 0,0 C 94 % 1023,7 hPa 0,0 l/m 0 min 0 min 0 W/m 12,9 km/h (3 Bft) 100,00 %
02.12.2022 08:48 3,1 C 2,8 C 0,0 C 94 % 1023,7 hPa 0,0 l/m 0 min 0 min 0 W/m 9,7 km/h (2 Bft) 97,87 %
02.12.2022 08:50 3,1 C 2,8 C 0,0 C 94 % 1023,7 hPa 0,0 l/m 0 min 0 min 0 W/m 12,9 km/h (3 Bft) 97,87 %
02.12.2022 08:52 3,1 C 2,8 C 0,0 C 94 % 1023,6 hPa 0,0 l/m 0 min 0 min 0 W/m 12,9 km/h (3 Bft) 97,83 %
02.12.2022 08:54 3,1 C 2,2 C 0,0 C 94 % 1023,7 hPa 0,0 l/m 0 min 0 min 0 W/m 12,9 km/h (3 Bft) 95,74 %
02.12.2022 08:56 3,1 C 2,8 C 0,0 C 94 % 1023,7 hPa 0,0 l/m 0 min 0 min 0 W/m 9,7 km/h (2 Bft) 91,49 %
02.12.2022 08:58 3,1 C 2,8 C 0,0 C 94 % 1023,6 hPa 0,0 l/m 0 min 0 min 0 W/m 9,7 km/h (2 Bft) 95,74 %
02.12.2022 09:00 3,0 C 2,2 C 0,0 C 94 % 1023,6 hPa 0,0 l/m 0 min 0 min 0 W/m 16,1 km/h (3 Bft) 97,87 %
02.12.2022 09:02 3,0 C 2,2 C 0,0 C 94 % 1023,6 hPa 0,0 l/m 0 min 0 min 0 W/m 12,9 km/h (3 Bft) 95,74 %
02.12.2022 09:04 3,0 C 2,2 C 0,0 C 94 % 1023,6 hPa 0,0 l/m 0 min 0 min 0 W/m 6,4 km/h (2 Bft) 95,65 %
02.12.2022 09:06 3,0 C 2,2 C 0,0 C 94 % 1023,6 hPa 0,0 l/m 0 min 0 min 0 W/m 19,3 km/h (3 Bft) 97,87 %
02.12.2022 09:08 2,9 C 2,2 C 0,0 C 94 % 1023,6 hPa 0,0 l/m 0 min 0 min 0 W/m 6,4 km/h (2 Bft) 97,87 %
02.12.2022 09:10 2,9 C 2,2 C 0,0 C 94 % 1023,6 hPa 0,0 l/m 0 min 0 min 0 W/m 22,5 km/h (4 Bft) 97,87 %
02.12.2022 09:12 2,9 C 2,2 C 0,0 C 94 % 1023,6 hPa 0,0 l/m 0 min 0 min 0 W/m 12,9 km/h (3 Bft) 97,87 %
02.12.2022 09:14 2,9 C 2,2 C 0,0 C 94 % 1023,6 hPa 0,0 l/m 0 min 0 min 0 W/m 9,7 km/h (2 Bft) 97,87 %
02.12.2022 09:16 2,9 C 2,2 C 0,0 C 94 % 1023,5 hPa 0,0 l/m 0 min 0 min 1 W/m 12,9 km/h (3 Bft) 95,65 %
02.12.2022 09:18 2,9 C 2,2 C 0,0 C 94 % 1023,6 hPa 0,0 l/m 0 min 0 min 5 W/m 12,9 km/h (3 Bft) 97,87 %
02.12.2022 09:20 2,9 C 2,2 C 0,0 C 94 % 1023,6 hPa 0,0 l/m 0 min 0 min 5 W/m 16,1 km/h (3 Bft) 95,74 %
02.12.2022 09:22 2,9 C 2,2 C 0,0 C 94 % 1023,6 hPa 0,0 l/m 0 min 0 min 5 W/m 19,3 km/h (3 Bft) 97,87 %
02.12.2022 09:24 2,9 C 2,2 C 0,0 C 94 % 1023,6 hPa 0,0 l/m 0 min 0 min 5 W/m 12,9 km/h (3 Bft) 100,00 %
02.12.2022 09:26 2,9 C 2,2 C 0,0 C 94 % 1023,6 hPa 0,0 l/m 0 min 0 min 5 W/m 12,9 km/h (3 Bft) 97,83 %
02.12.2022 09:28 2,9 C 2,2 C 0,0 C 95 % 1023,6 hPa 0,0 l/m 0 min 0 min 5 W/m 12,9 km/h (3 Bft) 97,87 %
02.12.2022 09:30 2,9 C 2,2 C 0,0 C 95 % 1023,5 hPa 0,0 l/m 0 min 0 min 5 W/m 9,7 km/h (2 Bft) 97,87 %
02.12.2022 09:32 2,9 C 2,2 C 0,0 C 95 % 1023,5 hPa 0,0 l/m 0 min 0 min 5 W/m 19,3 km/h (3 Bft) 95,74 %
02.12.2022 09:34 2,9 C 2,2 C 0,0 C 94 % 1023,5 hPa 0,0 l/m 0 min 0 min 5 W/m 6,4 km/h (2 Bft) 95,74 %
02.12.2022 09:36 2,9 C 2,2 C 0,0 C 94 % 1023,5 hPa 0,0 l/m 0 min 0 min 6 W/m 16,1 km/h (3 Bft) 93,62 %
02.12.2022 09:38 2,9 C 2,2 C 0,0 C 94 % 1023,5 hPa 0,0 l/m 0 min 0 min 7 W/m 12,9 km/h (3 Bft) 97,87 %
02.12.2022 09:40 2,9 C 2,2 C 0,0 C 94 % 1023,5 hPa 0,0 l/m 0 min 0 min 7 W/m 19,3 km/h (3 Bft) 97,83 %
02.12.2022 09:42 2,9 C 2,8 C 0,0 C 94 % 1023,6 hPa 0,0 l/m 0 min 0 min 7 W/m 12,9 km/h (3 Bft) 97,87 %
02.12.2022 09:44 2,8 C 2,2 C 0,0 C 94 % 1023,5 hPa 0,0 l/m 0 min 0 min 8 W/m 16,1 km/h (3 Bft) 93,62 %
02.12.2022 09:46 2,9 C 2,8 C 0,0 C 94 % 1023,6 hPa 0,0 l/m 0 min 0 min 10 W/m 9,7 km/h (2 Bft) 93,62 %
02.12.2022 09:48 2,8 C 2,8 C 0,0 C 94 % 1023,5 hPa 0,0 l/m 0 min 0 min 11 W/m 22,5 km/h (4 Bft) 97,87 %
02.12.2022 09:50 2,9 C 2,8 C 0,0 C 95 % 1023,6 hPa 0,0 l/m 0 min 0 min 11 W/m 16,1 km/h (3 Bft) 97,83 %
02.12.2022 09:52 2,9 C 2,8 C 0,0 C 95 % 1023,6 hPa 0,0 l/m 0 min 0 min 11 W/m 12,9 km/h (3 Bft) 91,49 %
02.12.2022 09:54 2,9 C 2,8 C 0,0 C 95 % 1023,6 hPa 0,0 l/m 0 min 0 min 11 W/m 12,9 km/h (3 Bft) 95,74 %
02.12.2022 09:56 2,9 C 2,8 C 0,0 C 95 % 1023,6 hPa 0,0 l/m 0 min 0 min 11 W/m 12,9 km/h (3 Bft) 95,74 %
02.12.2022 09:58 2,9 C 2,8 C 0,0 C 95 % 1023,6 hPa 0,0 l/m 0 min 0 min 11 W/m 19,3 km/h (3 Bft) 93,62 %
02.12.2022 10:00 2,9 C 2,8 C 0,0 C 95 % 1023,6 hPa 0,0 l/m 0 min 0 min 11 W/m 9,7 km/h (2 Bft) 95,74 %
02.12.2022 10:02 2,9 C 2,8 C 0,0 C 95 % 1023,6 hPa 0,0 l/m 0 min 0 min 11 W/m 16,1 km/h (3 Bft) 95,74 %
02.12.2022 10:04 2,9 C 2,8 C 0,0 C 95 % 1023,6 hPa 0,0 l/m 0 min 0 min 11 W/m 6,4 km/h (2 Bft) 97,22 %
02.12.2022 10:06 3,0 C 2,8 C 0,0 C 95 % 1023,5 hPa 0,0 l/m 0 min 0 min 11 W/m 12,9 km/h (3 Bft) 96,55 %
02.12.2022 10:08 3,0 C 2,8 C 0,0 C 95 % 1023,6 hPa 0,0 l/m 0 min 0 min 11 W/m 9,7 km/h (2 Bft) 97,87 %
02.12.2022 10:10 3,1 C 2,8 C 0,6 C 95 % 1023,6 hPa 0,0 l/m 0 min 0 min 12 W/m 6,4 km/h (2 Bft) 97,87 %
02.12.2022 10:12 3,1 C 2,8 C 0,6 C 95 % 1023,6 hPa 0,0 l/m 0 min 0 min 12 W/m 3,2 km/h (1 Bft) 97,87 %
02.12.2022 10:14 3,1 C 2,8 C 0,6 C 95 % 1023,7 hPa 0,0 l/m 0 min 0 min 12 W/m 19,3 km/h (3 Bft) 97,14 %
02.12.2022 10:16 3,1 C 2,8 C 0,6 C 95 % 1023,6 hPa 0,0 l/m 0 min 0 min 12 W/m 12,9 km/h (3 Bft) 97,87 %
02.12.2022 10:18 3,1 C 2,8 C 0,6 C 95 % 1023,6 hPa 0,0 l/m 0 min 0 min 14 W/m 9,7 km/h (2 Bft) 95,65 %
02.12.2022 10:20 3,2 C 2,8 C 0,6 C 95 % 1023,6 hPa 0,0 l/m 0 min 0 min 16 W/m 9,7 km/h (2 Bft) 96,61 %
02.12.2022 10:22 3,1 C 2,8 C 0,6 C 94 % 1023,6 hPa 0,0 l/m 0 min 0 min 18 W/m 12,9 km/h (3 Bft) 94,29 %
02.12.2022 10:24 3,2 C 2,8 C 0,6 C 94 % 1023,6 hPa 0,0 l/m 0 min 0 min 19 W/m 3,2 km/h (1 Bft) 97,87 %
02.12.2022 10:26 3,2 C 3,3 C 0,6 C 94 % 1023,5 hPa 0,0 l/m 0 min 0 min 23 W/m 9,7 km/h (2 Bft) 96,55 %
02.12.2022 10:28 3,2 C 3,3 C 0,6 C 94 % 1023,6 hPa 0,0 l/m 0 min 0 min 20 W/m 9,7 km/h (2 Bft) 97,87 %
02.12.2022 10:30 3,2 C 3,3 C 0,6 C 94 % 1023,6 hPa 0,0 l/m 0 min 0 min 22 W/m 6,4 km/h (2 Bft) 97,14 %
02.12.2022 10:32 3,3 C 3,3 C 0,6 C 94 % 1023,6 hPa 0,0 l/m 0 min 0 min 25 W/m 12,9 km/h (3 Bft) 98,00 %
02.12.2022 10:34 3,2 C 3,3 C 0,6 C 94 % 1023,5 hPa 0,0 l/m 0 min 0 min 26 W/m 16,1 km/h (3 Bft) 97,87 %
02.12.2022 10:36 3,2 C 2,8 C 0,6 C 94 % 1023,5 hPa 0,0 l/m 0 min 0 min 26 W/m 12,9 km/h (3 Bft) 96,00 %
02.12.2022 10:38 3,2 C 3,3 C 0,6 C 94 % 1023,5 hPa 0,0 l/m 0 min 0 min 25 W/m 12,9 km/h (3 Bft) 97,87 %
02.12.2022 10:40 3,2 C 3,3 C 0,6 C 94 % 1023,5 hPa 0,0 l/m 0 min 0 min 23 W/m 12,9 km/h (3 Bft) 97,87 %
02.12.2022 10:42 3,3 C 3,3 C 0,6 C 94 % 1023,4 hPa 0,0 l/m 0 min 0 min 23 W/m 9,7 km/h (2 Bft) 97,83 %
02.12.2022 10:44 3,3 C 3,3 C 0,6 C 94 % 1023,4 hPa 0,0 l/m 0 min 0 min 21 W/m 16,1 km/h (3 Bft) 97,87 %
02.12.2022 10:46 3,3 C 3,3 C 0,6 C 94 % 1023,4 hPa 0,0 l/m 0 min 0 min 19 W/m 12,9 km/h (3 Bft) 100,00 %
02.12.2022 10:48 3,2 C 2,8 C 0,6 C 94 % 1023,4 hPa 0,0 l/m 0 min 0 min 18 W/m 9,7 km/h (2 Bft) 95,74 %
02.12.2022 10:50 3,2 C 3,3 C 0,6 C 94 % 1023,4 hPa 0,0 l/m 0 min 0 min 18 W/m 12,9 km/h (3 Bft) 97,87 %
02.12.2022 10:52 3,3 C 3,3 C 0,6 C 94 % 1023,4 hPa 0,0 l/m 0 min 0 min 19 W/m 12,9 km/h (3 Bft) 100,00 %
02.12.2022 10:54 3,2 C 3,3 C 0,6 C 94 % 1023,4 hPa 0,0 l/m 0 min 0 min 21 W/m 16,1 km/h (3 Bft) 97,83 %
02.12.2022 10:56 3,3 C 3,3 C 0,6 C 94 % 1023,4 hPa 0,0 l/m 0 min 0 min 22 W/m 12,9 km/h (3 Bft) 95,74 %
02.12.2022 10:58 3,2 C 3,3 C 0,6 C 93 % 1023,4 hPa 0,0 l/m 0 min 0 min 22 W/m 12,9 km/h (3 Bft) 100,00 %
02.12.2022 11:00 3,2 C 3,3 C 0,6 C 93 % 1023,4 hPa 0,0 l/m 0 min 0 min 21 W/m 16,1 km/h (3 Bft) 97,87 %
02.12.2022 11:02 3,3 C 3,3 C 0,6 C 93 % 1023,4 hPa 0,0 l/m 0 min 0 min 21 W/m 16,1 km/h (3 Bft) 100,00 %
02.12.2022 11:04 3,3 C 3,3 C 0,6 C 93 % 1023,3 hPa 0,0 l/m 0 min 0 min 19 W/m 12,9 km/h (3 Bft) 100,00 %
02.12.2022 11:06 3,3 C 3,3 C 0,6 C 93 % 1023,4 hPa 0,0 l/m 0 min 0 min 16 W/m 12,9 km/h (3 Bft) 93,62 %
02.12.2022 11:08 3,3 C 3,3 C 0,6 C 93 % 1023,4 hPa 0,0 l/m 0 min 0 min 14 W/m 12,9 km/h (3 Bft) 100,00 %
02.12.2022 11:10 3,3 C 2,8 C 0,6 C 93 % 1023,4 hPa 0,0 l/m 0 min 0 min 14 W/m 19,3 km/h (3 Bft) 100,00 %
02.12.2022 11:12 3,3 C 2,8 C 0,6 C 93 % 1023,4 hPa 0,0 l/m 0 min 0 min 12 W/m 19,3 km/h (3 Bft) 97,87 %
02.12.2022 11:14 3,2 C 2,8 C 0,6 C 93 % 1023,4 hPa 0,0 l/m 0 min 0 min 12 W/m 19,3 km/h (3 Bft) 97,87 %
02.12.2022 11:16 3,2 C 2,8 C 0,6 C 93 % 1023,4 hPa 0,0 l/m 0 min 0 min 12 W/m 16,1 km/h (3 Bft) 97,87 %
02.12.2022 11:18 3,2 C 2,8 C 0,6 C 93 % 1023,4 hPa 0,0 l/m 0 min 0 min 14 W/m 16,1 km/h (3 Bft) 97,83 %
02.12.2022 11:20 3,2 C 2,8 C 0,6 C 93 % 1023,4 hPa 0,0 l/m 0 min 0 min 14 W/m 16,1 km/h (3 Bft) 100,00 %
02.12.2022 11:22 3,2 C 2,8 C 0,6 C 93 % 1023,4 hPa 0,0 l/m 0 min 0 min 15 W/m 16,1 km/h (3 Bft) 97,87 %
02.12.2022 11:24 3,2 C 2,8 C 0,6 C 93 % 1023,4 hPa 0,0 l/m 0 min 0 min 16 W/m 12,9 km/h (3 Bft) 47,62 %
02.12.2022 11:26 3,2 C 2,8 C 0,6 C 93 % 1023,4 hPa 0,0 l/m 0 min 0 min 16 W/m 9,7 km/h (2 Bft) 95,74 %
02.12.2022 11:28 3,2 C 2,8 C 0,6 C 93 % 1023,4 hPa 0,0 l/m 0 min 0 min 15 W/m 12,9 km/h (3 Bft) 95,74 %
02.12.2022 11:30 3,3 C 2,8 C 0,6 C 92 % 1023,4 hPa 0,0 l/m 0 min 0 min 16 W/m 12,9 km/h (3 Bft) 93,48 %
02.12.2022 11:32 3,3 C 2,8 C 0,6 C 92 % 1023,4 hPa 0,0 l/m 0 min 0 min 16 W/m 22,5 km/h (4 Bft) 95,74 %
02.12.2022 11:34 3,3 C 2,8 C 0,6 C 92 % 1023,4 hPa 0,0 l/m 0 min 0 min 18 W/m 9,7 km/h (2 Bft) 91,49 %
02.12.2022 11:36 3,3 C 2,8 C 0,6 C 92 % 1023,4 hPa 0,0 l/m 0 min 0 min 21 W/m 12,9 km/h (3 Bft) 95,74 %
02.12.2022 11:38 3,3 C 2,8 C 0,6 C 92 % 1023,3 hPa 0,0 l/m 0 min 0 min 21 W/m 9,7 km/h (2 Bft) 93,62 %
02.12.2022 11:40 3,3 C 2,8 C 0,6 C 92 % 1023,3 hPa 0,0 l/m 0 min 0 min 22 W/m 16,1 km/h (3 Bft) 95,74 %
02.12.2022 11:42 3,3 C 3,3 C 0,6 C 92 % 1023,2 hPa 0,0 l/m 0 min 0 min 23 W/m 12,9 km/h (3 Bft) 91,30 %
02.12.2022 11:44 3,3 C 2,8 C 0,6 C 92 % 1023,3 hPa 0,0 l/m 0 min 0 min 25 W/m 25,7 km/h (4 Bft) 93,62 %
02.12.2022 11:46 3,2 C 2,8 C 0,6 C 92 % 1023,3 hPa 0,0 l/m 0 min 0 min 23 W/m 16,1 km/h (3 Bft) 95,74 %
02.12.2022 11:48 3,3 C 2,8 C 0,6 C 92 % 1023,2 hPa 0,0 l/m 0 min 0 min 29 W/m 9,7 km/h (2 Bft) 93,62 %
02.12.2022 11:50 3,2 C 2,8 C 0,6 C 92 % 1023,1 hPa 0,0 l/m 0 min 0 min 32 W/m 16,1 km/h (3 Bft) 95,74 %
02.12.2022 11:52 3,2 C 3,3 C 0,6 C 92 % 1023,1 hPa 0,0 l/m 0 min 0 min 32 W/m 9,7 km/h (2 Bft) 95,74 %
02.12.2022 11:54 3,2 C 2,8 C 0,6 C 92 % 1023,1 hPa 0,0 l/m 0 min 0 min 32 W/m 22,5 km/h (4 Bft) 95,65 %
02.12.2022 11:56 3,2 C 3,3 C 0,6 C 92 % 1023,1 hPa 0,0 l/m 0 min 0 min 32 W/m 12,9 km/h (3 Bft) 95,74 %
02.12.2022 11:58 3,2 C 3,3 C 0,6 C 92 % 1023,1 hPa 0,0 l/m 0 min 0 min 34 W/m 16,1 km/h (3 Bft) 97,14 %
02.12.2022 12:00 3,2 C 3,3 C 0,6 C 92 % 1023,1 hPa 0,0 l/m 0 min 0 min 32 W/m 9,7 km/h (2 Bft) 98,31 %
02.12.2022 12:02 3,2 C 3,3 C 0,6 C 92 % 1023,1 hPa 0,0 l/m 0 min 0 min 34 W/m 16,1 km/h (3 Bft) 91,43 %
02.12.2022 12:04 3,2 C 3,3 C 0,6 C 92 % 1023,1 hPa 0,0 l/m 0 min 0 min 31 W/m 16,1 km/h (3 Bft) 98,31 %
02.12.2022 12:08 3,3 C 3,3 C 0,6 C 92 % 1023,1 hPa 0,0 l/m 0 min 0 min 35 W/m 16,1 km/h (3 Bft) 98,88 %
02.12.2022 12:10 3,3 C 3,3 C 0,6 C 92 % 1023,1 hPa 0,0 l/m 0 min 0 min 40 W/m 16,1 km/h (3 Bft) 100,00 %
02.12.2022 12:12 3,2 C 3,3 C 0,6 C 92 % 1023,1 hPa 0,0 l/m 0 min 0 min 43 W/m 19,3 km/h (3 Bft) 100,00 %
02.12.2022 12:14 3,2 C 3,3 C 0,6 C 92 % 1023,0 hPa 0,0 l/m 0 min 0 min 48 W/m 19,3 km/h (3 Bft) 100,00 %
02.12.2022 12:16 3,2 C 3,3 C 0,6 C 91 % 1023,0 hPa 0,0 l/m 0 min 0 min 45 W/m 12,9 km/h (3 Bft) 100,00 %
02.12.2022 12:18 3,2 C 3,3 C 0,6 C 91 % 1023,0 hPa 0,0 l/m 0 min 0 min 44 W/m 12,9 km/h (3 Bft) 100,00 %
02.12.2022 12:20 3,2 C 3,3 C 0,6 C 91 % 1023,1 hPa 0,0 l/m 0 min 0 min 40 W/m 12,9 km/h (3 Bft) 100,00 %
02.12.2022 12:22 3,2 C 3,3 C 0,6 C 91 % 1023,0 hPa 0,0 l/m 0 min 0 min 39 W/m 9,7 km/h (2 Bft) 97,87 %
02.12.2022 12:24 3,2 C 3,3 C 0,6 C 91 % 1023,0 hPa 0,0 l/m 0 min 0 min 37 W/m 22,5 km/h (4 Bft) 97,87 %
02.12.2022 12:26 3,2 C 3,3 C 0,6 C 91 % 1023,0 hPa 0,0 l/m 0 min 0 min 37 W/m 9,7 km/h (2 Bft) 97,87 %
02.12.2022 12:28 3,2 C 3,3 C 0,6 C 91 % 1023,0 hPa 0,0 l/m 0 min 0 min 37 W/m 16,1 km/h (3 Bft) 100,00 %
02.12.2022 12:30 3,3 C 3,3 C 0,6 C 91 % 1023,0 hPa 0,0 l/m 0 min 0 min 38 W/m 9,7 km/h (2 Bft) 97,87 %
02.12.2022 12:32 3,3 C 3,3 C 0,6 C 91 % 1023,0 hPa 0,0 l/m 0 min 0 min 39 W/m 16,1 km/h (3 Bft) 100,00 %
02.12.2022 12:34 3,3 C 3,3 C 0,6 C 91 % 1022,9 hPa 0,0 l/m 0 min 0 min 38 W/m 16,1 km/h (3 Bft) 100,00 %
02.12.2022 12:36 3,3 C 3,3 C 0,6 C 91 % 1022,9 hPa 0,0 l/m 0 min 0 min 38 W/m 19,3 km/h (3 Bft) 100,00 %
02.12.2022 12:38 3,3 C 2,8 C 0,6 C 91 % 1022,9 hPa 0,0 l/m 0 min 0 min 42 W/m 16,1 km/h (3 Bft) 97,87 %
02.12.2022 12:40 3,3 C 3,3 C 0,6 C 91 % 1022,9 hPa 0,0 l/m 0 min 0 min 40 W/m 16,1 km/h (3 Bft) 100,00 %
02.12.2022 12:42 3,3 C 2,8 C 0,6 C 91 % 1022,9 hPa 0,0 l/m 0 min 0 min 40 W/m 22,5 km/h (4 Bft) 100,00 %
02.12.2022 12:44 3,2 C 2,8 C 0,6 C 91 % 1022,9 hPa 0,0 l/m 0 min 0 min 42 W/m 22,5 km/h (4 Bft) 100,00 %
02.12.2022 12:46 3,3 C 3,3 C 0,6 C 91 % 1022,9 hPa 0,0 l/m 0 min 0 min 47 W/m 16,1 km/h (3 Bft) 100,00 %
02.12.2022 12:48 3,2 C 3,3 C 0,6 C 91 % 1022,9 hPa 0,0 l/m 0 min 0 min 41 W/m 16,1 km/h (3 Bft) 100,00 %
02.12.2022 12:50 3,2 C 3,3 C 0,6 C 91 % 1022,9 hPa 0,0 l/m 0 min 0 min 44 W/m 12,9 km/h (3 Bft) 100,00 %
02.12.2022 12:52 3,3 C 3,3 C 0,6 C 91 % 1022,8 hPa 0,0 l/m 0 min 0 min 47 W/m 16,1 km/h (3 Bft) 97,83 %
02.12.2022 12:54 3,3 C 3,3 C 0,6 C 91 % 1022,8 hPa 0,0 l/m 0 min 0 min 48 W/m 9,7 km/h (2 Bft) 100,00 %
02.12.2022 12:56 3,3 C 3,3 C 0,6 C 91 % 1022,8 hPa 0,0 l/m 0 min 0 min 47 W/m 12,9 km/h (3 Bft) 97,87 %
02.12.2022 12:58 3,3 C 3,3 C 0,6 C 91 % 1022,8 hPa 0,0 l/m 0 min 0 min 44 W/m 9,7 km/h (2 Bft) 100,00 %
02.12.2022 13:00 3,3 C 3,3 C 0,6 C 91 % 1022,8 hPa 0,0 l/m 0 min 0 min 42 W/m 16,1 km/h (3 Bft) 97,87 %
02.12.2022 13:02 3,3 C 3,3 C 0,6 C 91 % 1022,8 hPa 0,0 l/m 0 min 0 min 44 W/m 16,1 km/h (3 Bft) 95,74 %
02.12.2022 13:04 3,3 C 3,3 C 0,6 C 91 % 1022,7 hPa 0,0 l/m 0 min 0 min 52 W/m 9,7 km/h (2 Bft) 97,83 %
02.12.2022 13:06 3,3 C 3,3 C 0,6 C 91 % 1022,7 hPa 0,0 l/m 0 min 0 min 57 W/m 12,9 km/h (3 Bft) 96,61 %
02.12.2022 13:08 3,3 C 3,3 C 0,6 C 91 % 1022,7 hPa 0,0 l/m 0 min 0 min 49 W/m 16,1 km/h (3 Bft) 97,14 %
02.12.2022 13:10 3,3 C 3,3 C 0,6 C 91 % 1022,7 hPa 0,0 l/m 0 min 0 min 41 W/m 12,9 km/h (3 Bft) 97,87 %
02.12.2022 13:12 3,3 C 3,3 C 0,6 C 90 % 1022,7 hPa 0,0 l/m 0 min 0 min 39 W/m 16,1 km/h (3 Bft) 95,74 %
02.12.2022 13:14 3,3 C 3,3 C 0,6 C 90 % 1022,7 hPa 0,0 l/m 0 min 0 min 42 W/m 9,7 km/h (2 Bft) 95,74 %
02.12.2022 13:16 3,3 C 3,3 C 0,6 C 91 % 1022,7 hPa 0,0 l/m 0 min 0 min 41 W/m 9,7 km/h (2 Bft) 95,65 %
02.12.2022 13:18 3,3 C 3,3 C 0,6 C 91 % 1022,7 hPa 0,0 l/m 0 min 0 min 44 W/m 9,7 km/h (2 Bft) 95,74 %
02.12.2022 13:20 3,3 C 3,3 C 0,6 C 91 % 1022,6 hPa 0,0 l/m 0 min 0 min 41 W/m 19,3 km/h (3 Bft) 93,62 %
02.12.2022 13:22 3,3 C 3,3 C 0,6 C 90 % 1022,6 hPa 0,0 l/m 0 min 0 min 38 W/m 12,9 km/h (3 Bft) 95,74 %
02.12.2022 13:24 3,3 C 3,3 C 0,6 C 90 % 1022,6 hPa 0,0 l/m 0 min 0 min 42 W/m 16,1 km/h (3 Bft) 95,74 %
02.12.2022 13:26 3,3 C 3,3 C 0,6 C 90 % 1022,6 hPa 0,0 l/m 0 min 0 min 50 W/m 9,7 km/h (2 Bft) 97,87 %
02.12.2022 13:28 3,3 C 3,3 C 0,6 C 90 % 1022,6 hPa 0,0 l/m 0 min 0 min 52 W/m 12,9 km/h (3 Bft) 95,65 %
02.12.2022 13:30 3,3 C 3,3 C 0,6 C 90 % 1022,6 hPa 0,0 l/m 0 min 0 min 52 W/m 16,1 km/h (3 Bft) 91,49 %
02.12.2022 13:32 3,3 C 3,3 C 0,6 C 90 % 1022,6 hPa 0,0 l/m 0 min 0 min 43 W/m 19,3 km/h (3 Bft) 95,74 %
02.12.2022 13:34 3,3 C 3,3 C 0,6 C 90 % 1022,5 hPa 0,0 l/m 0 min 0 min 42 W/m 19,3 km/h (3 Bft) 95,74 %
02.12.2022 13:36 3,3 C 3,3 C 0,6 C 90 % 1022,5 hPa 0,0 l/m 0 min 0 min 47 W/m 9,7 km/h (2 Bft) 93,62 %
02.12.2022 13:38 3,3 C 3,3 C 0,6 C 90 % 1022,5 hPa 0,0 l/m 0 min 0 min 48 W/m 16,1 km/h (3 Bft) 95,65 %
02.12.2022 13:40 3,3 C 3,3 C 0,6 C 90 % 1022,5 hPa 0,0 l/m 0 min 0 min 48 W/m 16,1 km/h (3 Bft) 95,74 %
02.12.2022 13:42 3,3 C 2,8 C 0,6 C 90 % 1022,5 hPa 0,0 l/m 0 min 0 min 41 W/m 16,1 km/h (3 Bft) 91,49 %
02.12.2022 13:44 3,3 C 2,8 C 0,6 C 90 % 1022,5 hPa 0,0 l/m 0 min 0 min 39 W/m 19,3 km/h (3 Bft) 95,74 %
02.12.2022 13:46 3,3 C 2,8 C 0,6 C 90 % 1022,5 hPa 0,0 l/m 0 min 0 min 38 W/m 9,7 km/h (2 Bft) 87,23 %
02.12.2022 13:48 3,3 C 3,3 C 0,6 C 90 % 1022,5 hPa 0,0 l/m 0 min 0 min 40 W/m 19,3 km/h (3 Bft) 97,87 %
02.12.2022 13:50 3,3 C 2,8 C 0,0 C 90 % 1022,5 hPa 0,0 l/m 0 min 0 min 39 W/m 16,1 km/h (3 Bft) 100,00 %
02.12.2022 13:52 3,3 C 2,8 C 0,0 C 90 % 1022,5 hPa 0,0 l/m 0 min 0 min 38 W/m 9,7 km/h (2 Bft) 97,83 %
02.12.2022 13:54 3,3 C 2,8 C 0,0 C 90 % 1022,5 hPa 0,0 l/m 0 min 0 min 34 W/m 16,1 km/h (3 Bft) 100,00 %
02.12.2022 13:56 3,3 C 2,8 C 0,0 C 90 % 1022,5 hPa 0,0 l/m 0 min 0 min 32 W/m 16,1 km/h (3 Bft) 95,74 %
02.12.2022 13:58 3,2 C 2,8 C 0,0 C 90 % 1022,5 hPa 0,0 l/m 0 min 0 min 33 W/m 22,5 km/h (4 Bft) 97,87 %
02.12.2022 14:00 3,2 C 2,8 C 0,0 C 90 % 1022,6 hPa 0,0 l/m 0 min 0 min 35 W/m 12,9 km/h (3 Bft) 97,87 %
02.12.2022 14:02 3,2 C 2,8 C 0,0 C 90 % 1022,6 hPa 0,0 l/m 0 min 0 min 36 W/m 12,9 km/h (3 Bft) 95,65 %
02.12.2022 14:04 3,2 C 2,8 C 0,0 C 89 % 1022,6 hPa 0,0 l/m 0 min 0 min 48 W/m 19,3 km/h (3 Bft) 97,62 %
02.12.2022 14:06 3,2 C 2,8 C 0,0 C 89 % 1022,5 hPa 0,0 l/m 0 min 0 min 51 W/m 16,1 km/h (3 Bft) 96,55 %
02.12.2022 14:08 3,2 C 2,8 C 0,0 C 89 % 1022,5 hPa 0,0 l/m 0 min 0 min 49 W/m 9,7 km/h (2 Bft) 97,14 %
02.12.2022 14:10 3,2 C 2,8 C 0,0 C 90 % 1022,5 hPa 0,0 l/m 0 min 0 min 47 W/m 12,9 km/h (3 Bft) 97,87 %
02.12.2022 14:12 3,2 C 3,3 C 0,0 C 90 % 1022,4 hPa 0,0 l/m 0 min 0 min 47 W/m 12,9 km/h (3 Bft) 97,87 %
02.12.2022 14:14 3,2 C 3,3 C 0,0 C 90 % 1022,4 hPa 0,0 l/m 0 min 0 min 48 W/m 22,5 km/h (4 Bft) 97,87 %
02.12.2022 14:16 3,2 C 2,8 C 0,0 C 89 % 1022,4 hPa 0,0 l/m 0 min 0 min 44 W/m 12,9 km/h (3 Bft) 95,74 %
02.12.2022 14:18 3,2 C 2,8 C 0,0 C 89 % 1022,4 hPa 0,0 l/m 0 min 0 min 40 W/m 9,7 km/h (2 Bft) 97,87 %
02.12.2022 14:20 3,2 C 2,8 C 0,0 C 89 % 1022,4 hPa 0,0 l/m 0 min 0 min 40 W/m 16,1 km/h (3 Bft) 97,83 %
02.12.2022 14:22 3,2 C 3,3 C 0,0 C 89 % 1022,4 hPa 0,0 l/m 0 min 0 min 42 W/m 16,1 km/h (3 Bft) 97,87 %
02.12.2022 14:24 3,2 C 2,8 C 0,0 C 89 % 1022,4 hPa 0,0 l/m 0 min 0 min 41 W/m 19,3 km/h (3 Bft) 97,87 %
02.12.2022 14:26 3,2 C 2,8 C 0,0 C 89 % 1022,4 hPa 0,0 l/m 0 min 0 min 37 W/m 19,3 km/h (3 Bft) 97,87 %
02.12.2022 14:28 3,2 C 2,8 C 0,0 C 89 % 1022,4 hPa 0,0 l/m 0 min 0 min 32 W/m 16,1 km/h (3 Bft) 97,87 %
02.12.2022 14:30 3,2 C 2,8 C 0,0 C 89 % 1022,4 hPa 0,0 l/m 0 min 0 min 29 W/m 16,1 km/h (3 Bft) 97,87 %
02.12.2022 14:32 3,2 C 2,8 C 0,0 C 89 % 1022,4 hPa 0,0 l/m 0 min 0 min 27 W/m 9,7 km/h (2 Bft) 93,48 %
02.12.2022 14:34 3,2 C 2,8 C 0,0 C 89 % 1022,4 hPa 0,0 l/m 0 min 0 min 25 W/m 12,9 km/h (3 Bft) 100,00 %
02.12.2022 14:36 3,2 C 2,8 C 0,0 C 89 % 1022,4 hPa 0,0 l/m 0 min 0 min 23 W/m 12,9 km/h (3 Bft) 97,87 %
02.12.2022 14:38 3,2 C 2,8 C 0,0 C 89 % 1022,4 hPa 0,0 l/m 0 min 0 min 21 W/m 16,1 km/h (3 Bft) 100,00 %
02.12.2022 14:40 3,2 C 2,8 C 0,0 C 89 % 1022,4 hPa 0,0 l/m 0 min 0 min 24 W/m 16,1 km/h (3 Bft) 100,00 %
02.12.2022 14:42 3,2 C 2,8 C 0,0 C 89 % 1022,4 hPa 0,0 l/m 0 min 0 min 25 W/m 9,7 km/h (2 Bft) 100,00 %
02.12.2022 14:44 3,2 C 2,8 C 0,0 C 89 % 1022,4 hPa 0,0 l/m 0 min 0 min 25 W/m 9,7 km/h (2 Bft) 100,00 %
02.12.2022 14:46 3,2 C 2,8 C 0,0 C 89 % 1022,4 hPa 0,0 l/m 0 min 0 min 24 W/m 9,7 km/h (2 Bft) 100,00 %
02.12.2022 14:48 3,2 C 2,8 C 0,0 C 89 % 1022,4 hPa 0,0 l/m 0 min 0 min 24 W/m 9,7 km/h (2 Bft) 100,00 %
02.12.2022 14:50 3,2 C 2,8 C 0,0 C 89 % 1022,4 hPa 0,0 l/m 0 min 0 min 28 W/m 16,1 km/h (3 Bft) 100,00 %
02.12.2022 14:52 3,2 C 2,8 C 0,0 C 89 % 1022,4 hPa 0,0 l/m 0 min 0 min 31 W/m 19,3 km/h (3 Bft) 100,00 %
02.12.2022 14:54 3,2 C 2,8 C 0,0 C 89 % 1022,4 hPa 0,0 l/m 0 min 0 min 32 W/m 16,1 km/h (3 Bft) 100,00 %
02.12.2022 14:56 3,2 C 2,8 C 0,0 C 89 % 1022,4 hPa 0,0 l/m 0 min 0 min 33 W/m 25,7 km/h (4 Bft) 97,87 %
02.12.2022 14:58 3,2 C 2,8 C 0,0 C 89 % 1022,4 hPa 0,0 l/m 0 min 0 min 32 W/m 12,9 km/h (3 Bft) 100,00 %
02.12.2022 15:00 3,2 C 2,8 C 0,0 C 89 % 1022,4 hPa 0,0 l/m 0 min 0 min 31 W/m 19,3 km/h (3 Bft) 97,87 %
02.12.2022 15:02 3,2 C 2,8 C 0,0 C 89 % 1022,4 hPa 0,0 l/m 0 min 0 min 32 W/m 22,5 km/h (4 Bft) 95,74 %
02.12.2022 15:04 3,2 C 2,8 C 0,0 C 89 % 1022,4 hPa 0,0 l/m 0 min 0 min 33 W/m 19,3 km/h (3 Bft) 100,00 %
02.12.2022 15:06 3,2 C 2,8 C 0,0 C 89 % 1022,5 hPa 0,0 l/m 0 min 0 min 30 W/m 16,1 km/h (3 Bft) 100,00 %
02.12.2022 15:08 3,2 C 2,8 C 0,0 C 89 % 1022,4 hPa 0,0 l/m 0 min 0 min 32 W/m 16,1 km/h (3 Bft) 95,74 %
02.12.2022 15:10 3,2 C 2,8 C 0,0 C 89 % 1022,4 hPa 0,0 l/m 0 min 0 min 33 W/m 16,1 km/h (3 Bft) 95,74 %
02.12.2022 15:12 3,2 C 2,8 C 0,0 C 89 % 1022,4 hPa 0,0 l/m 0 min 0 min 33 W/m 16,1 km/h (3 Bft) 95,65 %
02.12.2022 15:14 3,2 C 2,8 C 0,0 C 89 % 1022,5 hPa 0,0 l/m 0 min 0 min 33 W/m 12,9 km/h (3 Bft) 100,00 %
02.12.2022 15:16 3,2 C 2,8 C 0,0 C 89 % 1022,5 hPa 0,0 l/m 0 min 0 min 30 W/m 9,7 km/h (2 Bft) 97,87 %
02.12.2022 15:18 3,2 C 2,8 C 0,0 C 89 % 1022,5 hPa 0,0 l/m 0 min 0 min 28 W/m 12,9 km/h (3 Bft) 56,52 %
02.12.2022 15:20 3,2 C 2,8 C 0,0 C 89 % 1022,5 hPa 0,0 l/m 0 min 0 min 25 W/m 22,5 km/h (4 Bft) 95,74 %
02.12.2022 15:22 3,2 C 2,8 C 0,0 C 89 % 1022,5 hPa 0,0 l/m 0 min 0 min 21 W/m 29,0 km/h (5 Bft) 97,87 %
02.12.2022 15:24 3,2 C 2,8 C 0,0 C 88 % 1022,5 hPa 0,0 l/m 0 min 0 min 19 W/m 19,3 km/h (3 Bft) 95,74 %
02.12.2022 15:26 3,2 C 2,8 C 0,0 C 88 % 1022,5 hPa 0,0 l/m 0 min 0 min 18 W/m 19,3 km/h (3 Bft) 97,83 %
02.12.2022 15:28 3,2 C 2,8 C 0,0 C 88 % 1022,6 hPa 0,0 l/m 0 min 0 min 17 W/m 19,3 km/h (3 Bft) 97,87 %
02.12.2022 15:30 3,2 C 2,8 C 0,0 C 88 % 1022,6 hPa 0,0 l/m 0 min 0 min 16 W/m 19,3 km/h (3 Bft) 97,87 %
02.12.2022 15:32 3,2 C 2,8 C 0,0 C 88 % 1022,7 hPa 0,0 l/m 0 min 0 min 15 W/m 12,9 km/h (3 Bft) 97,87 %
02.12.2022 15:34 3,2 C 2,8 C 0,0 C 88 % 1022,6 hPa 0,0 l/m 0 min 0 min 16 W/m 16,1 km/h (3 Bft) 97,87 %
02.12.2022 15:36 3,2 C 2,8 C 0,0 C 88 % 1022,6 hPa 0,0 l/m 0 min 0 min 14 W/m 12,9 km/h (3 Bft) 97,83 %
02.12.2022 15:38 3,2 C 2,8 C 0,0 C 88 % 1022,6 hPa 0,0 l/m 0 min 0 min 16 W/m 16,1 km/h (3 Bft) 97,87 %
02.12.2022 15:40 3,2 C 2,8 C 0,0 C 88 % 1022,6 hPa 0,0 l/m 0 min 0 min 13 W/m 32,2 km/h (5 Bft) 97,87 %
02.12.2022 15:42 3,1 C 2,8 C 0,0 C 88 % 1022,5 hPa 0,0 l/m 0 min 0 min 11 W/m 16,1 km/h (3 Bft) 100,00 %
02.12.2022 15:44 3,1 C 2,8 C 0,0 C 88 % 1022,6 hPa 0,0 l/m 0 min 0 min 10 W/m 12,9 km/h (3 Bft) 95,74 %
02.12.2022 15:46 3,1 C 2,8 C 0,0 C 88 % 1022,5 hPa 0,0 l/m 0 min 0 min 9 W/m 25,7 km/h (4 Bft) 100,00 %
02.12.2022 15:48 3,1 C 2,8 C 0,0 C 88 % 1022,6 hPa 0,0 l/m 0 min 0 min 8 W/m 12,9 km/h (3 Bft) 100,00 %
02.12.2022 15:50 3,1 C 2,8 C 0,0 C 88 % 1022,5 hPa 0,0 l/m 0 min 0 min 7 W/m 16,1 km/h (3 Bft) 100,00 %
02.12.2022 15:52 3,1 C 2,8 C 0,0 C 88 % 1022,6 hPa 0,0 l/m 0 min 0 min 7 W/m 12,9 km/h (3 Bft) 100,00 %
02.12.2022 15:54 3,1 C 2,8 C 0,0 C 88 % 1022,6 hPa 0,0 l/m 0 min 0 min 7 W/m 9,7 km/h (2 Bft) 100,00 %
02.12.2022 15:56 3,1 C 2,8 C 0,0 C 88 % 1022,6 hPa 0,0 l/m 0 min 0 min 7 W/m 22,5 km/h (4 Bft) 100,00 %
02.12.2022 15:58 3,1 C 2,8 C 0,0 C 88 % 1022,6 hPa 0,0 l/m 0 min 0 min 5 W/m 9,7 km/h (2 Bft) 100,00 %
02.12.2022 16:00 3,1 C 2,8 C 0,0 C 88 % 1022,6 hPa 0,0 l/m 0 min 0 min 5 W/m 19,3 km/h (3 Bft) 95,65 %
02.12.2022 16:02 3,1 C 2,8 C 0,0 C 88 % 1022,7 hPa 0,0 l/m 0 min 0 min 1 W/m 16,1 km/h (3 Bft) 100,00 %
02.12.2022 16:04 3,1 C 2,8 C 0,0 C 88 % 1022,7 hPa 0,0 l/m 0 min 0 min 0 W/m 16,1 km/h (3 Bft) 95,74 %
02.12.2022 16:06 3,1 C 2,8 C 0,0 C 88 % 1022,7 hPa 0,0 l/m 0 min 0 min 0 W/m 19,3 km/h (3 Bft) 97,87 %
02.12.2022 16:08 3,1 C 2,8 C 0,0 C 88 % 1022,7 hPa 0,0 l/m 0 min 0 min 0 W/m 9,7 km/h (2 Bft) 97,87 %
02.12.2022 16:10 3,1 C 2,8 C 0,0 C 88 % 1022,7 hPa 0,0 l/m 0 min 0 min 0 W/m 19,3 km/h (3 Bft) 95,92 %
02.12.2022 16:12 3,0 C 2,8 C 0,0 C 88 % 1022,7 hPa 0,0 l/m 0 min 0 min 0 W/m 19,3 km/h (3 Bft) 93,62 %
02.12.2022 16:14 3,0 C 2,8 C 0,0 C 88 % 1022,7 hPa 0,0 l/m 0 min 0 min 0 W/m 16,1 km/h (3 Bft) 97,83 %
02.12.2022 16:16 3,0 C 2,8 C 0,0 C 88 % 1022,7 hPa 0,0 l/m 0 min 0 min 0 W/m 12,9 km/h (3 Bft) 97,87 %
02.12.2022 16:18 3,0 C 2,8 C 0,0 C 88 % 1022,7 hPa 0,0 l/m 0 min 0 min 0 W/m 12,9 km/h (3 Bft) 95,74 %
02.12.2022 16:20 3,0 C 2,8 C 0,0 C 88 % 1022,7 hPa 0,0 l/m 0 min 0 min 0 W/m 12,9 km/h (3 Bft) 95,74 %
02.12.2022 16:22 3,0 C 2,8 C 0,0 C 88 % 1022,7 hPa 0,0 l/m 0 min 0 min 0 W/m 9,7 km/h (2 Bft) 95,74 %
02.12.2022 16:24 3,0 C 2,8 C 0,0 C 88 % 1022,7 hPa 0,0 l/m 0 min 0 min 0 W/m 19,3 km/h (3 Bft) 97,87 %
02.12.2022 16:26 3,0 C 2,8 C 0,0 C 88 % 1022,7 hPa 0,0 l/m 0 min 0 min 0 W/m 16,1 km/h (3 Bft) 97,83 %
02.12.2022 16:28 3,0 C 2,8 C 0,0 C 88 % 1022,7 hPa 0,0 l/m 0 min 0 min 0 W/m 19,3 km/h (3 Bft) 95,74 %
02.12.2022 16:30 2,9 C 2,8 C -0,6 C 88 % 1022,8 hPa 0,0 l/m 0 min 0 min 0 W/m 22,5 km/h (4 Bft) 93,62 %
02.12.2022 16:32 2,9 C 2,8 C -0,6 C 88 % 1022,8 hPa 0,0 l/m 0 min 0 min 0 W/m 12,9 km/h (3 Bft) 95,74 %
02.12.2022 16:34 2,9 C 2,8 C -0,6 C 88 % 1022,7 hPa 0,0 l/m 0 min 0 min 0 W/m 16,1 km/h (3 Bft) 95,74 %
02.12.2022 16:36 3,0 C 2,8 C -0,6 C 88 % 1022,7 hPa 0,0 l/m 0 min 0 min 0 W/m 22,5 km/h (4 Bft) 95,74 %
02.12.2022 16:38 2,9 C 2,2 C -0,6 C 88 % 1022,8 hPa 0,0 l/m 0 min 0 min 0 W/m 16,1 km/h (3 Bft) 91,30 %
02.12.2022 16:40 2,9 C 2,2 C -0,6 C 88 % 1022,8 hPa 0,0 l/m 0 min 0 min 0 W/m 16,1 km/h (3 Bft) 95,74 %
02.12.2022 16:42 2,9 C 2,2 C -0,6 C 88 % 1022,8 hPa 0,0 l/m 0 min 0 min 0 W/m 16,1 km/h (3 Bft) 93,62 %
02.12.2022 16:44 2,9 C 2,2 C -0,6 C 88 % 1022,8 hPa 0,0 l/m 0 min 0 min 0 W/m 12,9 km/h (3 Bft) 93,62 %
02.12.2022 16:46 2,9 C 2,2 C -0,6 C 88 % 1022,8 hPa 0,0 l/m 0 min 0 min 0 W/m 12,9 km/h (3 Bft) 95,74 %
02.12.2022 16:48 2,9 C 2,2 C -0,6 C 88 % 1022,8 hPa 0,0 l/m 0 min 0 min 0 W/m 19,3 km/h (3 Bft) 95,74 %
02.12.2022 16:50 2,9 C 2,2 C -0,6 C 88 % 1022,9 hPa 0,0 l/m 0 min 0 min 0 W/m 19,3 km/h (3 Bft) 95,65 %
02.12.2022 16:52 2,9 C 2,2 C -0,6 C 88 % 1022,9 hPa 0,0 l/m 0 min 0 min 0 W/m 12,9 km/h (3 Bft) 95,74 %
02.12.2022 16:54 2,9 C 2,2 C -0,6 C 88 % 1022,9 hPa 0,0 l/m 0 min 0 min 0 W/m 9,7 km/h (2 Bft) 91,49 %
02.12.2022 16:56 2,9 C 2,2 C -0,6 C 88 % 1022,9 hPa 0,0 l/m 0 min 0 min 0 W/m 16,1 km/h (3 Bft) 97,87 %
02.12.2022 16:58 2,9 C 2,2 C -0,6 C 88 % 1022,9 hPa 0,0 l/m 0 min 0 min 0 W/m 16,1 km/h (3 Bft) 97,87 %
02.12.2022 17:00 2,9 C 2,2 C -0,6 C 88 % 1022,9 hPa 0,0 l/m 0 min 0 min 0 W/m 16,1 km/h (3 Bft) 97,87 %
02.12.2022 17:02 2,8 C 2,2 C -0,6 C 88 % 1022,9 hPa 0,0 l/m 0 min 0 min 0 W/m 12,9 km/h (3 Bft) 95,65 %
02.12.2022 17:04 2,8 C 2,2 C -0,6 C 88 % 1022,9 hPa 0,0 l/m 0 min 0 min 0 W/m 12,9 km/h (3 Bft) 93,75 %
02.12.2022 17:06 2,8 C 2,2 C -0,6 C 88 % 1022,9 hPa 0,0 l/m 0 min 0 min 0 W/m 12,9 km/h (3 Bft) 95,74 %
02.12.2022 17:08 2,8 C 2,2 C -0,6 C 88 % 1022,9 hPa 0,0 l/m 0 min 0 min 0 W/m 16,1 km/h (3 Bft) 95,74 %
02.12.2022 17:10 2,8 C 2,2 C -0,6 C 88 % 1023,0 hPa 0,0 l/m 0 min 0 min 0 W/m 16,1 km/h (3 Bft) 95,65 %
02.12.2022 17:12 2,8 C 2,2 C -0,6 C 88 % 1023,0 hPa 0,0 l/m 0 min 0 min 0 W/m 12,9 km/h (3 Bft) 97,87 %
02.12.2022 17:14 2,8 C 2,2 C -0,6 C 88 % 1023,0 hPa 0,0 l/m 0 min 0 min 0 W/m 12,9 km/h (3 Bft) 97,87 %
02.12.2022 17:16 2,8 C 2,2 C -0,6 C 88 % 1022,9 hPa 0,0 l/m 0 min 0 min 0 W/m 19,3 km/h (3 Bft) 97,87 %
02.12.2022 17:18 2,8 C 2,2 C -0,6 C 88 % 1022,9 hPa 0,0 l/m 0 min 0 min 0 W/m 19,3 km/h (3 Bft) 97,87 %
02.12.2022 17:20 2,8 C 2,2 C -0,6 C 88 % 1023,0 hPa 0,0 l/m 0 min 0 min 0 W/m 12,9 km/h (3 Bft) 97,87 %
02.12.2022 17:22 2,8 C 2,2 C -0,6 C 88 % 1022,9 hPa 0,0 l/m 0 min 0 min 0 W/m 12,9 km/h (3 Bft) 97,87 %
02.12.2022 17:24 2,8 C 2,2 C -0,6 C 88 % 1022,9 hPa 0,0 l/m 0 min 0 min 0 W/m 16,1 km/h (3 Bft) 100,00 %
02.12.2022 17:26 2,8 C 2,2 C -0,6 C 88 % 1022,9 hPa 0,0 l/m 0 min 0 min 0 W/m 9,7 km/h (2 Bft) 97,87 %
02.12.2022 17:28 2,8 C 2,2 C -0,6 C 88 % 1023,0 hPa 0,0 l/m 0 min 0 min 0 W/m 19,3 km/h (3 Bft) 100,00 %
02.12.2022 17:30 2,8 C 2,2 C -0,6 C 88 % 1022,9 hPa 0,0 l/m 0 min 0 min 0 W/m 16,1 km/h (3 Bft) 100,00 %
02.12.2022 17:32 2,8 C 2,2 C -0,6 C 88 % 1023,0 hPa 0,0 l/m 0 min 0 min 0 W/m 9,7 km/h (2 Bft) 100,00 %
02.12.2022 17:37 2,8 C 2,2 C -0,6 C 88 % 1022,9 hPa 0,0 l/m 0 min 0 min 0 W/m 22,5 km/h (4 Bft) 100,00 %
02.12.2022 17:38 2,8 C 2,2 C -0,6 C 88 % 1022,9 hPa 0,0 l/m 0 min 0 min 0 W/m 12,9 km/h (3 Bft) 100,00 %
02.12.2022 17:40 2,8 C 2,2 C -0,6 C 88 % 1023,0 hPa 0,0 l/m 0 min 0 min 0 W/m 19,3 km/h (3 Bft) 100,00 %
02.12.2022 17:42 2,7 C 2,2 C -0,6 C 88 % 1022,9 hPa 0,0 l/m 0 min 0 min 0 W/m 16,1 km/h (3 Bft) 100,00 %
02.12.2022 17:44 2,8 C 2,2 C -0,6 C 88 % 1022,9 hPa 0,0 l/m 0 min 0 min 0 W/m 16,1 km/h (3 Bft) 100,00 %
02.12.2022 17:46 2,7 C 2,2 C -0,6 C 88 % 1023,0 hPa 0,0 l/m 0 min 0 min 0 W/m 12,9 km/h (3 Bft) 100,00 %
02.12.2022 17:48 2,7 C 2,2 C -0,6 C 88 % 1023,0 hPa 0,0 l/m 0 min 0 min 0 W/m 12,9 km/h (3 Bft) 100,00 %
02.12.2022 17:50 2,7 C 2,2 C -0,6 C 88 % 1023,0 hPa 0,0 l/m 0 min 0 min 0 W/m 22,5 km/h (4 Bft) 100,00 %
02.12.2022 17:52 2,7 C 2,2 C -0,6 C 88 % 1023,0 hPa 0,0 l/m 0 min 0 min 0 W/m 22,5 km/h (4 Bft) 100,00 %
02.12.2022 17:54 2,7 C 2,2 C -0,6 C 88 % 1022,9 hPa 0,0 l/m 0 min 0 min 0 W/m 16,1 km/h (3 Bft) 100,00 %
02.12.2022 17:56 2,7 C 2,2 C -0,6 C 88 % 1023,0 hPa 0,0 l/m 0 min 0 min 0 W/m 12,9 km/h (3 Bft) 100,00 %
02.12.2022 17:58 2,7 C 2,2 C -0,6 C 88 % 1023,0 hPa 0,0 l/m 0 min 0 min 0 W/m 16,1 km/h (3 Bft) 100,00 %
02.12.2022 18:00 2,7 C 2,2 C -0,6 C 88 % 1023,0 hPa 0,0 l/m 0 min 0 min 0 W/m 16,1 km/h (3 Bft) 100,00 %
02.12.2022 18:02 2,7 C 2,2 C -0,6 C 88 % 1023,0 hPa 0,0 l/m 0 min 0 min 0 W/m 22,5 km/h (4 Bft) 97,83 %
02.12.2022 18:04 2,7 C 2,2 C -0,6 C 88 % 1023,1 hPa 0,0 l/m 0 min 0 min 0 W/m 9,7 km/h (2 Bft) 100,00 %
02.12.2022 18:08 2,7 C 2,2 C -0,6 C 88 % 1023,0 hPa 0,0 l/m 0 min 0 min 0 W/m 16,1 km/h (3 Bft) 98,78 %
02.12.2022 18:10 2,7 C 2,2 C -0,6 C 88 % 1023,1 hPa 0,0 l/m 0 min 0 min 0 W/m 16,1 km/h (3 Bft) 100,00 %
02.12.2022 18:12 2,7 C 2,2 C -0,6 C 88 % 1023,1 hPa 0,0 l/m 0 min 0 min 0 W/m 16,1 km/h (3 Bft) 100,00 %
02.12.2022 18:14 2,7 C 2,2 C -0,6 C 87 % 1023,1 hPa 0,0 l/m 0 min 0 min 0 W/m 12,9 km/h (3 Bft) 100,00 %
02.12.2022 18:16 2,6 C 2,2 C -0,6 C 87 % 1023,1 hPa 0,0 l/m 0 min 0 min 0 W/m 12,9 km/h (3 Bft) 100,00 %
02.12.2022 18:18 2,6 C 2,2 C -0,6 C 87 % 1023,1 hPa 0,0 l/m 0 min 0 min 0 W/m 12,9 km/h (3 Bft) 100,00 %
02.12.2022 18:20 2,6 C 2,2 C -0,6 C 87 % 1023,1 hPa 0,0 l/m 0 min 0 min 0 W/m 16,1 km/h (3 Bft) 97,87 %
02.12.2022 18:22 2,7 C 2,2 C -0,6 C 88 % 1023,1 hPa 0,0 l/m 0 min 0 min 0 W/m 12,9 km/h (3 Bft) 100,00 %
02.12.2022 18:24 2,7 C 2,2 C -0,6 C 88 % 1023,1 hPa 0,0 l/m 0 min 0 min 0 W/m 19,3 km/h (3 Bft) 100,00 %
02.12.2022 18:26 2,6 C 2,2 C -0,6 C 88 % 1023,1 hPa 0,0 l/m 0 min 0 min 0 W/m 16,1 km/h (3 Bft) 100,00 %
02.12.2022 18:28 2,6 C 2,2 C -0,6 C 88 % 1023,0 hPa 0,0 l/m 0 min 0 min 0 W/m 12,9 km/h (3 Bft) 100,00 %
02.12.2022 18:30 2,6 C 2,2 C -0,6 C 88 % 1023,1 hPa 0,0 l/m 0 min 0 min 0 W/m 16,1 km/h (3 Bft) 100,00 %
02.12.2022 18:32 2,6 C 2,2 C -0,6 C 88 % 1023,1 hPa 0,0 l/m 0 min 0 min 0 W/m 22,5 km/h (4 Bft) 97,87 %
02.12.2022 18:34 2,6 C 2,2 C -0,6 C 88 % 1023,1 hPa 0,0 l/m 0 min 0 min 0 W/m 9,7 km/h (2 Bft) 97,87 %
02.12.2022 18:36 2,6 C 2,2 C -0,6 C 88 % 1023,1 hPa 0,0 l/m 0 min 0 min 0 W/m 12,9 km/h (3 Bft) 100,00 %
02.12.2022 18:38 2,6 C 2,2 C -0,6 C 88 % 1023,1 hPa 0,0 l/m 0 min 0 min 0 W/m 12,9 km/h (3 Bft) 97,87 %
02.12.2022 18:40 2,6 C 2,2 C -0,6 C 88 % 1023,1 hPa 0,0 l/m 0 min 0 min 0 W/m 12,9 km/h (3 Bft) 97,83 %
02.12.2022 18:42 2,6 C 2,2 C -0,6 C 88 % 1023,1 hPa 0,0 l/m 0 min 0 min 0 W/m 16,1 km/h (3 Bft) 97,87 %
02.12.2022 18:44 2,6 C 2,2 C -0,6 C 88 % 1023,1 hPa 0,0 l/m 0 min 0 min 0 W/m 25,7 km/h (4 Bft) 97,87 %
02.12.2022 18:46 2,5 C 2,2 C -0,6 C 88 % 1023,1 hPa 0,0 l/m 0 min 0 min 0 W/m 19,3 km/h (3 Bft) 97,87 %
02.12.2022 18:48 2,5 C 2,2 C -1,1 C 88 % 1023,1 hPa 0,0 l/m 0 min 0 min 0 W/m 19,3 km/h (3 Bft) 97,87 %
02.12.2022 18:50 2,5 C 2,2 C -1,1 C 88 % 1023,2 hPa 0,0 l/m 0 min 0 min 0 W/m 16,1 km/h (3 Bft) 95,74 %
02.12.2022 18:52 2,5 C 2,2 C -0,6 C 88 % 1023,1 hPa 0,0 l/m 0 min 0 min 0 W/m 12,9 km/h (3 Bft) 97,83 %
02.12.2022 18:54 2,4 C 2,2 C -1,1 C 88 % 1023,2 hPa 0,0 l/m 0 min 0 min 0 W/m 16,1 km/h (3 Bft) 95,74 %
02.12.2022 18:56 2,4 C 2,2 C -0,6 C 88 % 1023,2 hPa 0,0 l/m 0 min 0 min 0 W/m 16,1 km/h (3 Bft) 95,74 %
02.12.2022 18:58 2,5 C 2,2 C -0,6 C 88 % 1023,2 hPa 0,0 l/m 0 min 0 min 0 W/m 22,5 km/h (4 Bft) 93,62 %
02.12.2022 19:00 2,4 C 2,2 C -1,1 C 88 % 1023,2 hPa 0,0 l/m 0 min 0 min 0 W/m 16,1 km/h (3 Bft) 89,36 %
02.12.2022 19:02 2,4 C 2,2 C -1,1 C 88 % 1023,2 hPa 0,0 l/m 0 min 0 min 0 W/m 12,9 km/h (3 Bft) 93,62 %
02.12.2022 19:04 2,4 C 2,2 C -1,1 C 88 % 1023,2 hPa 0,0 l/m 0 min 0 min 0 W/m 12,9 km/h (3 Bft) 95,65 %
02.12.2022 19:06 2,4 C 2,2 C -1,1 C 88 % 1023,2 hPa 0,0 l/m 0 min 0 min 0 W/m 9,7 km/h (2 Bft) 93,22 %
02.12.2022 19:08 2,4 C 2,2 C -1,1 C 88 % 1023,2 hPa 0,0 l/m 0 min 0 min 0 W/m 12,9 km/h (3 Bft) 91,43 %
02.12.2022 19:10 2,5 C 2,2 C -0,6 C 88 % 1023,2 hPa 0,0 l/m 0 min 0 min 0 W/m 9,7 km/h (2 Bft) 93,62 %
02.12.2022 19:12 2,5 C 2,2 C -0,6 C 88 % 1023,2 hPa 0,0 l/m 0 min 0 min 0 W/m 9,7 km/h (2 Bft) 91,49 %
02.12.2022 19:14 2,5 C 2,2 C -0,6 C 88 % 1023,2 hPa 0,0 l/m 0 min 0 min 0 W/m 9,7 km/h (2 Bft) 91,49 %
02.12.2022 19:16 2,5 C 2,2 C -1,1 C 88 % 1023,2 hPa 0,0 l/m 0 min 0 min 0 W/m 12,9 km/h (3 Bft) 93,48 %
02.12.2022 19:18 2,5 C 2,2 C -1,1 C 88 % 1023,2 hPa 0,0 l/m 0 min 0 min 0 W/m 16,1 km/h (3 Bft) 89,36 %
02.12.2022 19:20 2,5 C 2,2 C -1,1 C 88 % 1023,2 hPa 0,0 l/m 0 min 0 min 0 W/m 25,7 km/h (4 Bft) 93,62 %
02.12.2022 19:22 2,4 C 2,2 C -1,1 C 88 % 1023,2 hPa 0,0 l/m 0 min 0 min 0 W/m 16,1 km/h (3 Bft) 97,87 %
02.12.2022 19:24 2,4 C 1,7 C -1,1 C 88 % 1023,2 hPa 0,0 l/m 0 min 0 min 0 W/m 19,3 km/h (3 Bft) 93,62 %
02.12.2022 19:26 2,4 C 1,7 C -1,1 C 88 % 1023,2 hPa 0,0 l/m 0 min 0 min 0 W/m 12,9 km/h (3 Bft) 93,62 %
02.12.2022 19:28 2,4 C 1,7 C -1,1 C 88 % 1023,2 hPa 0,0 l/m 0 min 0 min 0 W/m 9,7 km/h (2 Bft) 95,65 %
02.12.2022 19:30 2,4 C 1,7 C -1,1 C 88 % 1023,3 hPa 0,0 l/m 0 min 0 min 0 W/m 16,1 km/h (3 Bft) 93,62 %
02.12.2022 19:32 2,3 C 1,7 C -1,1 C 88 % 1023,2 hPa 0,0 l/m 0 min 0 min 0 W/m 12,9 km/h (3 Bft) 91,49 %
02.12.2022 19:34 2,3 C 1,7 C -1,1 C 88 % 1023,2 hPa 0,0 l/m 0 min 0 min 0 W/m 22,5 km/h (4 Bft) 95,74 %
02.12.2022 19:36 2,3 C 1,7 C -1,1 C 88 % 1023,2 hPa 0,0 l/m 0 min 0 min 0 W/m 16,1 km/h (3 Bft) 91,49 %
02.12.2022 19:38 2,3 C 1,7 C -1,1 C 88 % 1023,3 hPa 0,0 l/m 0 min 0 min 0 W/m 19,3 km/h (3 Bft) 95,74 %
02.12.2022 19:40 2,3 C 1,7 C -1,1 C 88 % 1023,2 hPa 0,0 l/m 0 min 0 min 0 W/m 22,5 km/h (4 Bft) 97,87 %
02.12.2022 19:42 2,3 C 1,7 C -1,1 C 88 % 1023,3 hPa 0,0 l/m 0 min 0 min 0 W/m 16,1 km/h (3 Bft) 95,65 %
02.12.2022 19:44 2,3 C 1,7 C -1,1 C 88 % 1023,3 hPa 0,0 l/m 0 min 0 min 0 W/m 19,3 km/h (3 Bft) 95,74 %
02.12.2022 19:46 2,2 C 1,7 C -1,1 C 88 % 1023,3 hPa 0,0 l/m 0 min 0 min 0 W/m 16,1 km/h (3 Bft) 97,87 %
02.12.2022 19:48 2,2 C 1,7 C -1,1 C 88 % 1023,2 hPa 0,0 l/m 0 min 0 min 0 W/m 19,3 km/h (3 Bft) 93,62 %
02.12.2022 19:50 2,2 C 1,7 C -1,1 C 88 % 1023,3 hPa 0,0 l/m 0 min 0 min 0 W/m 22,5 km/h (4 Bft) 95,74 %
02.12.2022 19:52 2,2 C 1,7 C -1,1 C 88 % 1023,2 hPa 0,0 l/m 0 min 0 min 0 W/m 12,9 km/h (3 Bft) 95,65 %
02.12.2022 19:54 2,2 C 1,7 C -1,1 C 88 % 1023,2 hPa 0,0 l/m 0 min 0 min 0 W/m 9,7 km/h (2 Bft) 95,74 %
02.12.2022 19:56 2,2 C 1,7 C -1,1 C 88 % 1023,2 hPa 0,0 l/m 0 min 0 min 0 W/m 19,3 km/h (3 Bft) 93,62 %
02.12.2022 19:58 2,2 C 1,7 C -1,1 C 88 % 1023,2 hPa 0,0 l/m 0 min 0 min 0 W/m 9,7 km/h (2 Bft) 97,87 %
02.12.2022 20:00 2,2 C 1,7 C -1,1 C 88 % 1023,2 hPa 0,0 l/m 0 min 0 min 0 W/m 9,7 km/h (2 Bft) 95,74 %
02.12.2022 20:02 2,2 C 1,7 C -1,1 C 88 % 1023,2 hPa 0,0 l/m 0 min 0 min 0 W/m 12,9 km/h (3 Bft) 100,00 %
02.12.2022 20:04 2,2 C 1,7 C -1,1 C 88 % 1023,2 hPa 0,0 l/m 0 min 0 min 0 W/m 16,1 km/h (3 Bft) 97,83 %
02.12.2022 20:06 2,2 C 1,7 C -1,1 C 88 % 1023,2 hPa 0,0 l/m 0 min 0 min 0 W/m 16,1 km/h (3 Bft) 100,00 %
02.12.2022 20:08 2,2 C 1,7 C -1,1 C 88 % 1023,1 hPa 0,0 l/m 0 min 0 min 0 W/m 12,9 km/h (3 Bft) 100,00 %
02.12.2022 20:10 2,2 C 1,7 C -1,1 C 88 % 1023,1 hPa 0,0 l/m 0 min 0 min 0 W/m 25,7 km/h (4 Bft) 100,00 %
02.12.2022 20:12 2,2 C 1,7 C -1,1 C 88 % 1023,2 hPa 0,0 l/m 0 min 0 min 0 W/m 12,9 km/h (3 Bft) 95,74 %
02.12.2022 20:14 2,2 C 1,7 C -1,1 C 88 % 1023,2 hPa 0,0 l/m 0 min 0 min 0 W/m 12,9 km/h (3 Bft) 100,00 %
02.12.2022 20:16 2,2 C 1,7 C -1,1 C 88 % 1023,1 hPa 0,0 l/m 0 min 0 min 0 W/m 19,3 km/h (3 Bft) 100,00 %
02.12.2022 20:18 2,1 C 1,7 C -1,1 C 88 % 1023,1 hPa 0,0 l/m 0 min 0 min 0 W/m 19,3 km/h (3 Bft) 97,87 %
02.12.2022 20:20 2,1 C 1,7 C -1,1 C 88 % 1023,1 hPa 0,0 l/m 0 min 0 min 0 W/m 16,1 km/h (3 Bft) 100,00 %
02.12.2022 20:22 2,1 C 1,7 C -1,1 C 88 % 1023,1 hPa 0,0 l/m 0 min 0 min 0 W/m 9,7 km/h (2 Bft) 97,87 %
02.12.2022 20:24 2,1 C 1,7 C -1,1 C 88 % 1023,1 hPa 0,0 l/m 0 min 0 min 0 W/m 16,1 km/h (3 Bft) 100,00 %
02.12.2022 20:26 2,1 C 1,7 C -1,1 C 88 % 1023,1 hPa 0,0 l/m 0 min 0 min 0 W/m 22,5 km/h (4 Bft) 93,62 %
02.12.2022 20:28 2,1 C 1,7 C -1,1 C 89 % 1023,1 hPa 0,0 l/m 0 min 0 min 0 W/m 16,1 km/h (3 Bft) 93,48 %
02.12.2022 20:30 2,1 C 1,7 C -1,1 C 89 % 1023,2 hPa 0,0 l/m 0 min 0 min 0 W/m 22,5 km/h (4 Bft) 97,87 %
02.12.2022 20:32 2,1 C 1,7 C -1,1 C 89 % 1023,1 hPa 0,0 l/m 0 min 0 min 0 W/m 25,7 km/h (4 Bft) 100,00 %
02.12.2022 20:34 2,1 C 1,7 C -1,7 C 89 % 1023,1 hPa 0,0 l/m 0 min 0 min 0 W/m 12,9 km/h (3 Bft) 100,00 %
02.12.2022 20:36 2,1 C 1,7 C -1,7 C 89 % 1023,1 hPa 0,0 l/m 0 min 0 min 0 W/m 9,7 km/h (2 Bft) 100,00 %
02.12.2022 20:38 2,0 C 1,7 C -1,7 C 89 % 1023,1 hPa 0,0 l/m 0 min 0 min 0 W/m 16,1 km/h (3 Bft) 100,00 %
02.12.2022 20:40 2,0 C 1,1 C -1,7 C 89 % 1023,1 hPa 0,0 l/m 0 min 0 min 0 W/m 16,1 km/h (3 Bft) 97,83 %
02.12.2022 20:42 2,0 C 1,1 C -1,7 C 89 % 1023,1 hPa 0,0 l/m 0 min 0 min 0 W/m 16,1 km/h (3 Bft) 97,87 %
02.12.2022 20:44 1,9 C 1,1 C -1,7 C 90 % 1023,2 hPa 0,0 l/m 0 min 0 min 0 W/m 16,1 km/h (3 Bft) 97,87 %
02.12.2022 20:46 1,9 C 1,1 C -1,7 C 90 % 1023,1 hPa 0,0 l/m 0 min 0 min 0 W/m 9,7 km/h (2 Bft) 52,27 %
02.12.2022 20:48 1,9 C 1,1 C -1,7 C 90 % 1023,1 hPa 0,0 l/m 0 min 0 min 0 W/m 9,7 km/h (2 Bft) 100,00 %
02.12.2022 20:50 1,9 C 1,1 C -1,7 C 90 % 1023,2 hPa 0,0 l/m 0 min 0 min 0 W/m 16,1 km/h (3 Bft) 97,87 %
02.12.2022 20:52 1,9 C 1,1 C -1,7 C 90 % 1023,2 hPa 0,0 l/m 0 min 0 min 0 W/m 16,1 km/h (3 Bft) 97,83 %
02.12.2022 20:54 1,8 C 1,1 C -1,7 C 90 % 1023,2 hPa 0,0 l/m 0 min 0 min 0 W/m 9,7 km/h (2 Bft) 97,87 %
02.12.2022 20:56 1,8 C 1,1 C -1,7 C 91 % 1023,2 hPa 0,0 l/m 0 min 0 min 0 W/m 12,9 km/h (3 Bft) 95,74 %
02.12.2022 20:58 1,8 C 1,1 C -1,7 C 91 % 1023,1 hPa 0,0 l/m 0 min 0 min 0 W/m 22,5 km/h (4 Bft) 95,74 %
02.12.2022 21:00 1,8 C 1,1 C -1,7 C 91 % 1023,2 hPa 0,0 l/m 0 min 0 min 0 W/m 9,7 km/h (2 Bft) 97,87 %
02.12.2022 21:02 1,8 C 1,1 C -1,7 C 91 % 1023,2 hPa 0,0 l/m 0 min 0 min 0 W/m 12,9 km/h (3 Bft) 95,74 %
02.12.2022 21:04 1,7 C 1,1 C -1,7 C 91 % 1023,2 hPa 0,0 l/m 0 min 0 min 0 W/m 19,3 km/h (3 Bft) 95,65 %
02.12.2022 21:06 1,7 C 1,1 C -1,7 C 91 % 1023,3 hPa 0,0 l/m 0 min 0 min 0 W/m 12,9 km/h (3 Bft) 98,31 %
02.12.2022 21:08 1,7 C 1,1 C -1,7 C 91 % 1023,2 hPa 0,0 l/m 0 min 0 min 0 W/m 12,9 km/h (3 Bft) 94,29 %
02.12.2022 21:10 1,7 C 1,1 C -1,7 C 92 % 1023,3 hPa 0,0 l/m 0 min 0 min 0 W/m 12,9 km/h (3 Bft) 97,87 %
02.12.2022 21:12 1,7 C 1,1 C -1,7 C 91 % 1023,2 hPa 0,0 l/m 0 min 0 min 0 W/m 9,7 km/h (2 Bft) 100,00 %
02.12.2022 21:14 1,7 C 1,1 C -1,7 C 92 % 1023,2 hPa 0,0 l/m 0 min 0 min 0 W/m 9,7 km/h (2 Bft) 97,83 %
02.12.2022 21:16 1,7 C 1,1 C -1,7 C 92 % 1023,2 hPa 0,0 l/m 0 min 0 min 0 W/m 22,5 km/h (4 Bft) 100,00 %
02.12.2022 21:18 1,7 C 1,1 C -1,7 C 92 % 1023,2 hPa 0,0 l/m 0 min 0 min 0 W/m 9,7 km/h (2 Bft) 97,87 %
02.12.2022 21:20 1,7 C 1,1 C -1,7 C 92 % 1023,2 hPa 0,0 l/m 0 min 0 min 0 W/m 19,3 km/h (3 Bft) 100,00 %
02.12.2022 21:22 1,6 C 1,1 C -1,7 C 92 % 1023,2 hPa 0,0 l/m 0 min 0 min 0 W/m 12,9 km/h (3 Bft) 97,87 %
02.12.2022 21:24 1,6 C 1,1 C -1,7 C 92 % 1023,2 hPa 0,0 l/m 0 min 0 min 0 W/m 16,1 km/h (3 Bft) 100,00 %
02.12.2022 21:26 1,6 C 1,1 C -1,7 C 92 % 1023,2 hPa 0,0 l/m 0 min 0 min 0 W/m 12,9 km/h (3 Bft) 97,83 %
02.12.2022 21:28 1,6 C 1,1 C -1,7 C 92 % 1023,2 hPa 0,0 l/m 0 min 0 min 0 W/m 19,3 km/h (3 Bft) 97,87 %
02.12.2022 21:30 1,6 C 1,1 C -1,7 C 92 % 1023,2 hPa 0,0 l/m 0 min 0 min 0 W/m 25,7 km/h (4 Bft) 97,87 %
02.12.2022 21:32 1,6 C 1,1 C -1,7 C 92 % 1023,2 hPa 0,0 l/m 0 min 0 min 0 W/m 29,0 km/h (5 Bft) 95,74 %
02.12.2022 21:34 1,6 C 1,1 C -1,7 C 92 % 1023,1 hPa 0,0 l/m 0 min 0 min 0 W/m 12,9 km/h (3 Bft) 95,74 %
02.12.2022 21:36 1,6 C 1,1 C -1,7 C 92 % 1023,1 hPa 0,0 l/m 0 min 0 min 0 W/m 22,5 km/h (4 Bft) 95,74 %
02.12.2022 21:38 1,5 C 1,1 C -1,7 C 92 % 1023,2 hPa 0,0 l/m 0 min 0 min 0 W/m 19,3 km/h (3 Bft) 97,83 %
02.12.2022 21:40 1,6 C 1,1 C -1,7 C 93 % 1023,1 hPa 0,0 l/m 0 min 0 min 0 W/m 19,3 km/h (3 Bft) 97,87 %
02.12.2022 21:42 1,5 C 1,1 C -1,7 C 93 % 1023,2 hPa 0,0 l/m 0 min 0 min 0 W/m 19,3 km/h (3 Bft) 97,87 %
02.12.2022 21:44 1,5 C 1,1 C -1,7 C 93 % 1023,2 hPa 0,0 l/m 0 min 0 min 0 W/m 19,3 km/h (3 Bft) 97,87 %
02.12.2022 21:46 1,5 C 1,1 C -1,7 C 93 % 1023,2 hPa 0,0 l/m 0 min 0 min 0 W/m 9,7 km/h (2 Bft) 95,74 %
02.12.2022 21:48 1,5 C 1,1 C -1,7 C 93 % 1023,1 hPa 0,0 l/m 0 min 0 min 0 W/m 25,7 km/h (4 Bft) 97,87 %
02.12.2022 21:50 1,5 C 1,1 C -1,7 C 93 % 1023,2 hPa 0,0 l/m 0 min 0 min 0 W/m 12,9 km/h (3 Bft) 95,65 %
02.12.2022 21:52 1,6 C 1,1 C -1,7 C 93 % 1023,2 hPa 0,0 l/m 0 min 0 min 0 W/m 16,1 km/h (3 Bft) 97,87 %
02.12.2022 21:54 1,6 C 1,1 C -1,7 C 93 % 1023,2 hPa 0,0 l/m 0 min 0 min 0 W/m 16,1 km/h (3 Bft) 97,87 %
02.12.2022 21:56 1,5 C 1,1 C -1,7 C 93 % 1023,2 hPa 0,0 l/m 0 min 0 min 0 W/m 12,9 km/h (3 Bft) 97,87 %
02.12.2022 21:58 1,6 C 1,1 C -1,7 C 93 % 1023,1 hPa 0,0 l/m 0 min 0 min 0 W/m 16,1 km/h (3 Bft) 97,87 %
02.12.2022 22:00 1,5 C 1,1 C -1,7 C 93 % 1023,1 hPa 0,0 l/m 0 min 0 min 0 W/m 12,9 km/h (3 Bft) 97,87 %
02.12.2022 22:02 1,5 C 1,1 C -1,7 C 93 % 1023,1 hPa 0,0 l/m 0 min 0 min 0 W/m 12,9 km/h (3 Bft) 97,83 %
02.12.2022 22:04 1,5 C 1,1 C -1,7 C 93 % 1023,1 hPa 0,0 l/m 0 min 0 min 0 W/m 16,1 km/h (3 Bft) 100,00 %
02.12.2022 22:06 1,6 C 1,1 C -1,7 C 93 % 1023,1 hPa 0,0 l/m 0 min 0 min 0 W/m 19,3 km/h (3 Bft) 96,61 %
02.12.2022 22:08 1,5 C 1,1 C -1,7 C 93 % 1023,1 hPa 0,0 l/m 0 min 0 min 0 W/m 9,7 km/h (2 Bft) 100,00 %
02.12.2022 22:10 1,6 C 1,1 C -1,7 C 93 % 1023,1 hPa 0,0 l/m 0 min 0 min 0 W/m 16,1 km/h (3 Bft) 95,74 %
02.12.2022 22:12 1,5 C 1,1 C -1,7 C 93 % 1023,1 hPa 0,0 l/m 0 min 0 min 0 W/m 19,3 km/h (3 Bft) 100,00 %
02.12.2022 22:14 1,6 C 1,1 C -1,7 C 93 % 1023,1 hPa 0,0 l/m 0 min 0 min 0 W/m 9,7 km/h (2 Bft) 100,00 %
02.12.2022 22:16 1,6 C 1,1 C -1,7 C 93 % 1023,1 hPa 0,0 l/m 0 min 0 min 0 W/m 12,9 km/h (3 Bft) 100,00 %
02.12.2022 22:18 1,6 C 1,1 C -1,7 C 93 % 1023,0 hPa 0,0 l/m 0 min 0 min 0 W/m 16,1 km/h (3 Bft) 100,00 %
02.12.2022 22:20 1,6 C 1,1 C -1,7 C 93 % 1023,1 hPa 0,0 l/m 0 min 0 min 0 W/m 19,3 km/h (3 Bft) 100,00 %
02.12.2022 22:22 1,6 C 1,1 C -1,7 C 93 % 1023,0 hPa 0,0 l/m 0 min 0 min 0 W/m 12,9 km/h (3 Bft) 95,74 %
02.12.2022 22:24 1,6 C 1,1 C -1,7 C 93 % 1022,9 hPa 0,0 l/m 0 min 0 min 0 W/m 16,1 km/h (3 Bft) 95,74 %
02.12.2022 22:26 1,5 C 1,1 C -1,7 C 93 % 1023,0 hPa 0,0 l/m 0 min 0 min 0 W/m 12,9 km/h (3 Bft) 52,38 %
02.12.2022 22:28 1,5 C 1,1 C -1,7 C 93 % 1023,0 hPa 0,0 l/m 0 min 0 min 0 W/m 12,9 km/h (3 Bft) 93,62 %
02.12.2022 22:30 1,6 C 1,1 C -1,7 C 93 % 1022,9 hPa 0,0 l/m 0 min 0 min 0 W/m 22,5 km/h (4 Bft) 95,83 %
02.12.2022 22:32 1,5 C 1,1 C -1,7 C 93 % 1022,9 hPa 0,0 l/m 0 min 0 min 0 W/m 25,7 km/h (4 Bft) 93,48 %
02.12.2022 22:34 1,5 C 1,1 C -1,7 C 93 % 1022,9 hPa 0,0 l/m 0 min 0 min 0 W/m 9,7 km/h (2 Bft) 95,74 %
02.12.2022 22:36 1,5 C 1,1 C -1,7 C 93 % 1022,9 hPa 0,0 l/m 0 min 0 min 0 W/m 12,9 km/h (3 Bft) 95,74 %
02.12.2022 22:38 1,6 C 1,1 C -1,7 C 93 % 1022,9 hPa 0,0 l/m 0 min 0 min 0 W/m 9,7 km/h (2 Bft) 95,74 %
02.12.2022 22:40 1,6 C 1,1 C -1,7 C 93 % 1023,0 hPa 0,0 l/m 0 min 0 min 0 W/m 22,5 km/h (4 Bft) 95,74 %
02.12.2022 22:42 1,6 C 1,1 C -1,7 C 93 % 1022,9 hPa 0,0 l/m 0 min 0 min 0 W/m 25,7 km/h (4 Bft) 93,62 %
02.12.2022 22:44 1,6 C 1,1 C -1,7 C 93 % 1022,9 hPa 0,0 l/m 0 min 0 min 0 W/m 9,7 km/h (2 Bft) 95,65 %
02.12.2022 22:46 1,6 C 1,1 C -1,7 C 93 % 1023,0 hPa 0,0 l/m 0 min 0 min 0 W/m 9,7 km/h (2 Bft) 95,74 %
02.12.2022 22:48 1,6 C 1,1 C -1,7 C 93 % 1023,0 hPa 0,0 l/m 0 min 0 min 0 W/m 12,9 km/h (3 Bft) 93,62 %
02.12.2022 22:50 1,6 C 1,1 C -1,7 C 93 % 1023,0 hPa 0,0 l/m 0 min 0 min 0 W/m 9,7 km/h (2 Bft) 95,74 %
02.12.2022 22:52 1,6 C 1,1 C -1,7 C 93 % 1023,0 hPa 0,0 l/m 0 min 0 min 0 W/m 16,1 km/h (3 Bft) 95,74 %
02.12.2022 22:54 1,6 C 1,1 C -1,7 C 93 % 1023,0 hPa 0,0 l/m 0 min 0 min 0 W/m 12,9 km/h (3 Bft) 95,74 %
02.12.2022 22:56 1,6 C 1,1 C -1,7 C 93 % 1023,0 hPa 0,0 l/m 0 min 0 min 0 W/m 9,7 km/h (2 Bft) 95,65 %
02.12.2022 22:58 1,6 C 1,1 C -1,7 C 93 % 1022,9 hPa 0,0 l/m 0 min 0 min 0 W/m 16,1 km/h (3 Bft) 95,74 %
02.12.2022 23:00 1,6 C 1,1 C -1,7 C 93 % 1023,0 hPa 0,0 l/m 0 min 0 min 0 W/m 12,9 km/h (3 Bft) 95,74 %
02.12.2022 23:02 1,6 C 1,1 C -1,7 C 93 % 1023,0 hPa 0,0 l/m 0 min 0 min 0 W/m 19,3 km/h (3 Bft) 97,87 %
02.12.2022 23:04 1,6 C 1,1 C -1,7 C 93 % 1023,0 hPa 0,0 l/m 0 min 0 min 0 W/m 12,9 km/h (3 Bft) 97,87 %
02.12.2022 23:06 1,6 C 1,1 C -1,7 C 93 % 1023,0 hPa 0,0 l/m 0 min 0 min 0 W/m 16,1 km/h (3 Bft) 97,87 %
02.12.2022 23:08 1,6 C 1,1 C -1,7 C 93 % 1023,0 hPa 0,0 l/m 0 min 0 min 0 W/m 12,9 km/h (3 Bft) 97,83 %
02.12.2022 23:10 1,6 C 1,1 C -1,7 C 93 % 1023,0 hPa 0,0 l/m 0 min 0 min 0 W/m 12,9 km/h (3 Bft) 97,87 %
02.12.2022 23:12 1,6 C 1,1 C -1,7 C 93 % 1023,0 hPa 0,0 l/m 0 min 0 min 0 W/m 16,1 km/h (3 Bft) 97,87 %
02.12.2022 23:14 1,6 C 1,1 C -1,7 C 93 % 1023,0 hPa 0,0 l/m 0 min 0 min 0 W/m 16,1 km/h (3 Bft) 100,00 %
02.12.2022 23:16 1,6 C 1,1 C -1,7 C 93 % 1023,0 hPa 0,0 l/m 0 min 0 min 0 W/m 12,9 km/h (3 Bft) 97,87 %
02.12.2022 23:18 1,6 C 1,1 C -1,7 C 93 % 1023,0 hPa 0,0 l/m 0 min 0 min 0 W/m 9,7 km/h (2 Bft) 100,00 %
02.12.2022 23:20 1,6 C 1,1 C -1,7 C 93 % 1023,0 hPa 0,0 l/m 0 min 0 min 0 W/m 12,9 km/h (3 Bft) 97,83 %
02.12.2022 23:22 1,6 C 1,1 C -1,7 C 93 % 1023,0 hPa 0,0 l/m 0 min 0 min 0 W/m 16,1 km/h (3 Bft) 100,00 %
02.12.2022 23:24 1,6 C 1,1 C -1,7 C 93 % 1023,0 hPa 0,0 l/m 0 min 0 min 0 W/m 12,9 km/h (3 Bft) 100,00 %
02.12.2022 23:26 1,6 C 1,1 C -1,7 C 92 % 1023,1 hPa 0,0 l/m 0 min 0 min 0 W/m 16,1 km/h (3 Bft) 100,00 %
02.12.2022 23:28 1,6 C 1,1 C -1,7 C 92 % 1023,1 hPa 0,0 l/m 0 min 0 min 0 W/m 12,9 km/h (3 Bft) 100,00 %
02.12.2022 23:30 1,6 C 1,1 C -1,7 C 92 % 1023,1 hPa 0,0 l/m 0 min 0 min 0 W/m 9,7 km/h (2 Bft) 97,87 %
02.12.2022 23:32 1,6 C 1,1 C -1,7 C 93 % 1023,1 hPa 0,0 l/m 0 min 0 min 0 W/m 16,1 km/h (3 Bft) 100,00 %
02.12.2022 23:34 1,6 C 1,1 C -1,7 C 93 % 1023,1 hPa 0,0 l/m 0 min 0 min 0 W/m 12,9 km/h (3 Bft) 100,00 %
02.12.2022 23:36 1,6 C 1,1 C -1,7 C 93 % 1023,1 hPa 0,0 l/m 0 min 0 min 0 W/m 9,7 km/h (2 Bft) 100,00 %
02.12.2022 23:38 1,6 C 1,1 C -1,7 C 93 % 1023,1 hPa 0,0 l/m 0 min 0 min 0 W/m 9,7 km/h (2 Bft) 100,00 %
02.12.2022 23:40 1,6 C 1,1 C -1,7 C 92 % 1023,1 hPa 0,0 l/m 0 min 0 min 0 W/m 12,9 km/h (3 Bft) 95,74 %
02.12.2022 23:42 1,6 C 1,1 C -1,7 C 92 % 1023,1 hPa 0,0 l/m 0 min 0 min 0 W/m 25,7 km/h (4 Bft) 100,00 %
02.12.2022 23:44 1,6 C 1,1 C -1,7 C 92 % 1023,1 hPa 0,0 l/m 0 min 0 min 0 W/m 12,9 km/h (3 Bft) 97,83 %
02.12.2022 23:46 1,6 C 1,1 C -1,7 C 92 % 1023,1 hPa 0,0 l/m 0 min 0 min 0 W/m 9,7 km/h (2 Bft) 100,00 %
02.12.2022 23:48 1,6 C 1,1 C -1,7 C 92 % 1023,1 hPa 0,0 l/m 0 min 0 min 0 W/m 16,1 km/h (3 Bft) 100,00 %
02.12.2022 23:50 1,6 C 1,1 C -1,7 C 92 % 1023,1 hPa 0,0 l/m 0 min 0 min 0 W/m 19,3 km/h (3 Bft) 95,74 %
02.12.2022 23:52 1,6 C 1,1 C -1,7 C 92 % 1023,1 hPa 0,0 l/m 0 min 0 min 0 W/m 16,1 km/h (3 Bft) 95,74 %
02.12.2022 23:54 1,6 C 1,1 C -1,7 C 92 % 1023,1 hPa 0,0 l/m 0 min 0 min 0 W/m 16,1 km/h (3 Bft) 95,35 %
02.12.2022 23:56 1,6 C 1,1 C -1,7 C 92 % 1023,1 hPa 0,0 l/m 0 min 0 min 0 W/m 9,7 km/h (2 Bft) 93,62 %
02.12.2022 23:58 1,6 C 1,1 C -1,7 C 92 % 1023,1 hPa 0,0 l/m 0 min 0 min 0 W/m 9,7 km/h (2 Bft) 97,83 %
_ Min-Zeit 21:38 20:40 20:34 18:14 14:12 - - - - 00:12 03:52
Minimum _ 1,5 C 1,1 C -1,7 C 87 % 1022,4 hPa - - - - 3,2 km/h (1 Bft) 46,34 %
_ Max-Zeit 00:00 00:00 00:00 09:28 00:00 00:00 00:00 00:00 13:06 15:40 00:00
Maximum _ 3,9 C 3,3 C 1,1 C 95 % 1026,1 hPa 0,0 l/m 0 min 0 min 57 W/m 32,2 km/h
O-NO (5 Bft)
100,00 %
Durchschnitt _ 2,9 C 2,5 C -0,2 C 91 % 1023,6 hPa #0,0 l/m #0 min. #0 min. 27 W/m 12,8 km/h (3 Bft) 96,98 %
© 2022 W. Hausmann